GEFSSE_prec_meanprecacc_144.txt.gz
Total_Precipitation_Accumulation
0.10 0.09 0.13 0.12 0.11 0.11 0.14 0.17 0.19 0.18 0.15 0.12 0.08 0.06 0.04 0.03 0.04 0.05 0.06 0.08 0.10 0.14 0.16 0.18 0.21 0.22 0.21 0.20 0.20 0.19 0.22 0.26 0.27 0.27 0.33 0.39 0.43 0.54 0.69 0.73 0.82 0.62 0.47
0.02 0.06 0.12 0.13 0.11 0.11 0.13 0.15 0.18 0.17 0.15 0.13 0.12 0.08 0.06 0.05 0.05 0.06 0.08 0.10 0.12 0.14 0.15 0.13 0.13 0.14 0.14 0.15 0.16 0.16 0.21 0.28 0.38 0.48 0.54 0.52 0.56 0.66 0.74 0.70 0.86 0.55 0.42
0.02 0.04 0.09 0.13 0.11 0.10 0.11 0.12 0.15 0.15 0.15 0.13 0.12 0.10 0.07 0.06 0.07 0.08 0.10 0.11 0.12 0.13 0.12 0.11 0.10 0.10 0.11 0.11 0.13 0.16 0.21 0.31 0.51 0.73 0.93 0.78 0.46 0.63 0.68 0.62 0.53 0.34 0.34
0.03 0.03 0.04 0.11 0.12 0.10 0.09 0.10 0.13 0.14 0.14 0.13 0.12 0.11 0.10 0.09 0.09 0.10 0.11 0.13 0.14 0.14 0.11 0.10 0.09 0.09 0.09 0.10 0.13 0.18 0.27 0.38 0.57 0.90 1.22 0.72 0.34 0.39 0.46 0.43 0.37 0.27 0.25
0.07 0.04 0.05 0.08 0.10 0.10 0.10 0.10 0.11 0.12 0.12 0.12 0.11 0.11 0.11 0.12 0.12 0.13 0.14 0.17 0.16 0.13 0.12 0.11 0.09 0.08 0.08 0.11 0.14 0.20 0.30 0.40 0.64 0.97 0.90 0.73 0.64 0.40 0.33 0.34 0.30 0.24 0.21
0.10 0.08 0.09 0.11 0.11 0.10 0.10 0.09 0.09 0.10 0.11 0.12 0.12 0.12 0.13 0.13 0.14 0.16 0.16 0.17 0.17 0.14 0.11 0.10 0.09 0.08 0.08 0.11 0.16 0.22 0.34 0.48 0.67 0.62 0.57 0.62 0.60 0.44 0.33 0.40 0.35 0.28 0.25
0.17 0.15 0.14 0.16 0.16 0.13 0.12 0.12 0.12 0.11 0.12 0.13 0.14 0.14 0.13 0.15 0.17 0.18 0.18 0.17 0.17 0.15 0.12 0.11 0.12 0.10 0.13 0.17 0.21 0.28 0.40 0.57 0.58 0.46 0.51 0.74 0.67 0.45 0.43 0.60 0.61 0.47 0.34
0.31 0.24 0.20 0.22 0.23 0.19 0.18 0.19 0.17 0.16 0.16 0.16 0.14 0.14 0.14 0.16 0.17 0.17 0.18 0.19 0.19 0.18 0.13 0.11 0.11 0.13 0.18 0.21 0.25 0.32 0.42 0.46 0.39 0.45 0.53 0.66 0.54 0.50 0.59 0.81 0.86 0.70 0.52
0.37 0.36 0.31 0.24 0.23 0.23 0.26 0.27 0.25 0.22 0.22 0.21 0.17 0.15 0.14 0.17 0.19 0.19 0.20 0.23 0.22 0.20 0.19 0.18 0.15 0.14 0.17 0.20 0.24 0.29 0.40 0.49 0.51 0.57 0.60 0.57 0.42 0.45 0.65 0.83 0.79 0.73 0.64
0.54 0.50 0.47 0.42 0.36 0.29 0.27 0.31 0.32 0.30 0.29 0.25 0.21 0.19 0.20 0.24 0.25 0.26 0.24 0.29 0.30 0.27 0.27 0.29 0.25 0.23 0.25 0.29 0.35 0.39 0.48 0.42 0.58 0.59 0.74 0.75 0.52 0.60 0.84 0.96 0.85 0.78 0.72
0.78 0.70 0.59 0.53 0.47 0.39 0.30 0.29 0.34 0.35 0.34 0.31 0.33 0.33 0.35 0.46 0.57 0.60 0.57 0.62 0.60 0.56 0.54 0.52 0.50 0.47 0.42 0.36 0.49 0.67 0.53 0.35 0.61 0.71 0.81 0.82 0.68 0.85 1.13 1.19 1.12 0.98 0.88
0.99 0.75 0.68 0.56 0.49 0.40 0.32 0.40 0.47 0.49 0.52 0.48 0.60 0.66 0.78 0.92 0.92 0.74 0.94 1.06 1.02 1.05 0.96 0.92 1.08 0.90 0.68 0.62 1.04 1.39 0.67 0.49 0.60 0.67 0.71 0.77 1.01 1.30 1.53 1.41 1.27 1.19 1.06
1.03 1.07 1.01 0.83 0.70 0.60 0.63 0.56 0.59 0.70 0.85 0.81 0.82 0.97 1.21 1.12 0.95 0.85 0.98 1.31 1.44 1.52 1.45 1.53 1.61 1.22 1.19 1.40 1.57 1.48 0.97 0.88 0.85 0.83 0.85 1.12 1.49 1.77 1.87 1.63 1.48 1.40 1.30
1.38 1.57 1.69 1.38 1.26 1.08 0.96 0.85 0.77 0.79 0.95 1.09 1.26 1.32 1.48 1.52 1.39 1.24 1.27 1.46 1.64 1.78 2.09 2.07 1.96 1.80 1.76 1.70 1.63 1.45 1.30 1.29 1.18 1.30 1.51 1.47 1.63 1.89 2.06 1.91 1.70 1.61 1.54
1.99 2.14 2.36 1.95 1.78 1.66 1.60 1.43 1.18 1.20 1.27 1.36 1.58 1.69 1.79 1.96 1.94 1.86 1.76 1.71 1.58 1.75 2.09 2.28 2.17 2.18 2.12 2.00 1.81 1.64 1.54 1.50 1.44 1.53 1.67 1.88 1.87 1.86 2.00 2.13 1.99 1.81 1.70
2.54 2.64 2.73 2.57 2.50 2.33 2.11 2.04 1.90 1.58 1.56 1.56 1.65 1.66 1.85 2.09 2.34 2.41 2.30 2.13 1.83 1.77 1.88 2.19 2.30 2.44 2.34 2.22 1.66 1.57 1.56 1.59 1.64 1.63 1.72 2.21 2.24 1.88 1.79 1.93 2.07 2.09 1.95
3.44 3.27 3.23 3.17 3.32 3.12 2.72 2.41 2.12 1.95 1.91 1.95 1.96 1.89 2.03 2.27 2.47 2.48 2.26 1.92 1.72 1.78 1.88 1.83 1.89 2.21 2.00 1.85 1.68 1.78 1.78 1.68 1.64 1.64 1.69 2.05 2.09 1.76 1.55 1.56 1.77 1.94 2.05
4.19 4.04 3.82 3.41 3.55 3.54 3.24 2.95 2.62 2.36 2.35 2.20 2.01 1.90 1.93 2.14 2.12 2.16 1.81 1.44 1.51 1.72 1.79 1.79 1.77 1.88 1.87 1.91 1.92 1.88 1.82 1.68 1.43 1.35 1.28 1.30 1.46 1.27 1.36 1.55 1.55 1.56 1.83
4.43 4.60 4.58 4.42 4.06 3.83 3.61 3.38 3.17 2.93 2.54 2.14 1.97 1.87 1.72 1.62 1.59 1.68 1.42 1.31 1.38 1.52 1.59 1.55 1.73 1.85 1.74 1.82 1.80 1.72 1.41 1.24 1.11 0.99 0.96 0.89 0.97 1.05 1.07 1.21 1.29 1.34 1.70
4.31 4.79 4.98 4.95 4.54 4.04 3.57 3.15 3.02 2.82 2.49 2.18 1.95 1.75 1.48 1.34 1.30 1.46 1.34 1.23 1.32 1.42 1.44 1.59 1.72 1.79 1.57 1.54 1.43 1.20 1.00 0.77 0.72 0.67 0.58 0.65 0.71 0.72 0.82 0.96 1.21 1.09 1.49
4.01 4.61 4.71 4.88 4.32 3.63 3.09 2.68 2.51 2.25 1.98 1.90 1.77 1.60 1.47 1.34 1.28 1.41 1.26 1.17 1.15 1.20 1.22 1.34 1.43 1.45 1.22 1.40 1.57 1.12 0.79 0.61 0.53 0.42 0.42 0.47 0.51 0.59 0.76 1.00 1.19 1.20 1.33
3.48 4.12 4.12 3.75 3.43 2.96 2.49 2.27 2.09 1.97 1.75 1.56 1.37 1.25 1.14 1.08 1.11 1.14 1.10 0.97 0.96 1.02 1.01 1.08 1.21 1.20 1.06 1.30 1.47 1.37 1.03 0.81 0.63 0.42 0.42 0.43 0.49 0.62 0.70 0.79 1.09 1.27 1.27
3.13 3.21 2.76 2.46 2.41 2.30 2.03 1.90 1.85 1.78 1.61 1.31 1.04 0.91 0.86 0.83 0.82 0.79 0.79 0.80 0.85 0.83 0.87 0.95 1.10 1.22 1.09 1.07 1.27 1.42 1.18 0.89 0.77 0.59 0.55 0.59 0.67 0.77 0.82 0.96 1.07 1.19 1.27
2.33 2.19 2.02 1.89 1.85 1.96 1.91 1.70 1.56 1.29 1.14 0.95 0.79 0.77 0.77 0.71 0.67 0.62 0.61 0.70 0.77 0.80 0.87 0.80 0.85 1.02 1.10 0.98 1.03 1.10 1.13 1.15 1.11 0.85 0.63 0.58 0.66 0.73 0.75 0.79 0.89 1.05 1.14
1.59 1.60 1.49 1.67 1.77 1.78 1.71 1.63 1.54 1.29 1.07 0.92 0.86 0.88 0.82 0.75 0.67 0.59 0.55 0.56 0.65 0.74 0.81 0.82 0.84 0.87 0.92 0.89 0.88 0.90 0.96 1.07 1.07 1.02 0.79 0.62 0.61 0.58 0.64 0.71 0.81 0.88 0.97
0.94 1.03 1.10 1.27 1.48 1.53 1.48 1.44 1.42 1.30 1.13 0.94 0.83 0.80 0.73 0.68 0.63 0.58 0.56 0.57 0.57 0.58 0.63 0.71 0.75 0.78 0.82 0.84 0.82 0.86 0.94 0.92 0.93 1.04 0.93 0.78 0.72 0.63 0.69 0.75 0.87 0.96 0.98

GEFSSE_prec_meanprecacc_150.txt.gz
Total_Precipitation_Accumulation
0.12 0.10 0.14 0.13 0.12 0.13 0.16 0.20 0.22 0.20 0.17 0.14 0.09 0.07 0.05 0.04 0.04 0.06 0.07 0.10 0.12 0.17 0.20 0.21 0.24 0.25 0.23 0.22 0.21 0.21 0.23 0.27 0.29 0.28 0.34 0.41 0.46 0.57 0.75 0.84 0.93 0.66 0.51
0.05 0.08 0.13 0.13 0.11 0.13 0.16 0.17 0.20 0.19 0.16 0.15 0.13 0.09 0.07 0.06 0.06 0.07 0.09 0.12 0.15 0.18 0.18 0.16 0.16 0.17 0.15 0.17 0.17 0.18 0.22 0.29 0.40 0.50 0.56 0.54 0.59 0.71 0.81 0.79 0.95 0.58 0.47
0.03 0.05 0.11 0.14 0.11 0.12 0.13 0.14 0.17 0.17 0.16 0.15 0.13 0.12 0.09 0.08 0.08 0.09 0.12 0.13 0.15 0.17 0.16 0.14 0.13 0.13 0.13 0.12 0.14 0.17 0.22 0.34 0.55 0.79 1.02 0.80 0.47 0.66 0.75 0.69 0.58 0.39 0.39
0.03 0.03 0.05 0.12 0.12 0.11 0.11 0.13 0.15 0.16 0.15 0.14 0.13 0.12 0.11 0.12 0.12 0.12 0.13 0.15 0.17 0.17 0.16 0.15 0.12 0.12 0.11 0.11 0.14 0.20 0.28 0.41 0.63 1.05 1.32 0.74 0.35 0.41 0.50 0.49 0.41 0.30 0.31
0.07 0.05 0.05 0.09 0.11 0.12 0.11 0.13 0.14 0.15 0.15 0.15 0.14 0.13 0.13 0.14 0.14 0.16 0.17 0.20 0.19 0.17 0.16 0.15 0.13 0.10 0.10 0.11 0.15 0.22 0.33 0.45 0.72 1.07 0.94 0.76 0.65 0.42 0.37 0.40 0.35 0.28 0.26
0.11 0.09 0.10 0.12 0.12 0.12 0.11 0.11 0.13 0.13 0.13 0.14 0.15 0.15 0.15 0.15 0.17 0.20 0.22 0.21 0.20 0.18 0.14 0.14 0.12 0.09 0.10 0.12 0.17 0.25 0.37 0.55 0.78 0.66 0.60 0.65 0.62 0.46 0.37 0.46 0.41 0.33 0.29
0.18 0.15 0.16 0.18 0.18 0.16 0.14 0.14 0.15 0.14 0.14 0.15 0.17 0.17 0.16 0.18 0.20 0.21 0.22 0.21 0.21 0.18 0.14 0.14 0.16 0.13 0.15 0.18 0.23 0.30 0.43 0.64 0.66 0.48 0.56 0.79 0.70 0.48 0.46 0.63 0.65 0.52 0.38
0.31 0.24 0.20 0.24 0.25 0.21 0.20 0.20 0.19 0.17 0.18 0.17 0.17 0.17 0.17 0.19 0.20 0.19 0.21 0.23 0.22 0.20 0.16 0.14 0.14 0.16 0.21 0.23 0.27 0.34 0.44 0.52 0.42 0.46 0.56 0.68 0.56 0.52 0.62 0.83 0.88 0.73 0.56
0.37 0.36 0.31 0.25 0.24 0.25 0.28 0.29 0.27 0.23 0.24 0.22 0.18 0.17 0.17 0.20 0.21 0.21 0.22 0.27 0.25 0.22 0.22 0.21 0.17 0.16 0.18 0.21 0.25 0.30 0.41 0.51 0.53 0.58 0.61 0.58 0.43 0.47 0.67 0.85 0.80 0.75 0.66
0.55 0.50 0.48 0.42 0.37 0.30 0.29 0.33 0.34 0.31 0.30 0.26 0.23 0.21 0.23 0.26 0.27 0.28 0.26 0.31 0.33 0.30 0.30 0.31 0.27 0.24 0.26 0.30 0.36 0.40 0.48 0.44 0.60 0.60 0.74 0.76 0.53 0.61 0.86 0.97 0.86 0.79 0.73
0.81 0.70 0.60 0.54 0.48 0.40 0.31 0.30 0.35 0.36 0.36 0.32 0.35 0.34 0.38 0.51 0.61 0.63 0.60 0.64 0.62 0.59 0.56 0.54 0.51 0.48 0.43 0.36 0.50 0.68 0.54 0.38 0.64 0.73 0.83 0.83 0.69 0.86 1.15 1.20 1.13 0.99 0.89
1.05 0.77 0.69 0.57 0.51 0.42 0.34 0.42 0.50 0.52 0.54 0.52 0.64 0.69 0.86 1.04 1.05 0.83 0.99 1.08 1.04 1.08 0.97 0.93 1.10 0.93 0.72 0.63 1.04 1.40 0.68 0.51 0.62 0.68 0.72 0.77 1.02 1.31 1.53 1.42 1.28 1.20 1.08
1.05 1.08 1.03 0.84 0.72 0.65 0.68 0.60 0.65 0.76 0.91 0.89 0.89 1.03 1.29 1.21 1.04 0.94 1.03 1.33 1.48 1.55 1.48 1.54 1.63 1.28 1.26 1.43 1.58 1.49 0.98 0.89 0.88 0.90 0.88 1.13 1.49 1.78 1.88 1.65 1.49 1.41 1.31
1.41 1.59 1.71 1.41 1.31 1.17 1.02 0.90 0.81 0.82 1.00 1.15 1.32 1.37 1.53 1.59 1.49 1.34 1.35 1.52 1.69 1.84 2.17 2.11 2.00 1.84 1.79 1.71 1.65 1.46 1.31 1.30 1.19 1.32 1.55 1.50 1.63 1.90 2.08 1.92 1.71 1.62 1.55
2.03 2.17 2.39 1.99 1.83 1.72 1.69 1.51 1.23 1.25 1.32 1.42 1.64 1.75 1.84 2.01 2.02 1.95 1.86 1.78 1.64 1.78 2.12 2.32 2.21 2.24 2.16 2.01 1.82 1.66 1.55 1.51 1.44 1.54 1.69 1.90 1.89 1.87 2.01 2.14 2.00 1.82 1.71
2.58 2.67 2.78 2.62 2.56 2.40 2.18 2.13 1.99 1.66 1.65 1.63 1.71 1.72 1.91 2.14 2.40 2.48 2.37 2.20 1.89 1.81 1.90 2.22 2.33 2.47 2.37 2.24 1.69 1.59 1.60 1.63 1.66 1.66 1.75 2.23 2.26 1.89 1.80 1.94 2.09 2.11 1.97
3.47 3.31 3.28 3.22 3.38 3.20 2.81 2.50 2.22 2.04 1.98 2.02 2.03 1.96 2.09 2.32 2.52 2.53 2.33 1.98 1.76 1.80 1.90 1.85 1.92 2.22 2.03 1.89 1.73 1.82 1.83 1.74 1.66 1.65 1.73 2.09 2.12 1.77 1.57 1.58 1.78 1.95 2.06
4.24 4.10 3.87 3.45 3.61 3.60 3.33 3.07 2.75 2.46 2.43 2.28 2.07 1.96 1.98 2.19 2.16 2.21 1.87 1.49 1.54 1.74 1.80 1.82 1.79 1.91 1.90 1.96 1.97 1.92 1.87 1.74 1.46 1.37 1.29 1.34 1.51 1.30 1.39 1.56 1.56 1.57 1.84
4.48 4.65 4.63 4.47 4.12 3.89 3.69 3.49 3.27 3.05 2.66 2.24 2.06 1.93 1.77 1.66 1.62 1.71 1.47 1.36 1.41 1.55 1.61 1.56 1.75 1.88 1.81 1.87 1.82 1.76 1.43 1.27 1.13 1.00 0.97 0.91 0.99 1.08 1.10 1.23 1.30 1.35 1.71
4.35 4.84 5.04 5.01 4.61 4.13 3.66 3.25 3.12 2.93 2.60 2.32 2.08 1.84 1.54 1.38 1.33 1.50 1.39 1.26 1.35 1.46 1.48 1.62 1.76 1.84 1.63 1.59 1.46 1.26 1.03 0.78 0.73 0.68 0.60 0.67 0.73 0.73 0.83 0.98 1.22 1.10 1.49
4.05 4.66 4.76 4.94 4.39 3.71 3.16 2.76 2.59 2.35 2.06 2.00 1.87 1.68 1.55 1.38 1.32 1.45 1.31 1.23 1.20 1.27 1.26 1.37 1.48 1.51 1.27 1.45 1.63 1.19 0.83 0.63 0.56 0.44 0.43 0.49 0.53 0.60 0.78 1.02 1.20 1.22 1.34
3.51 4.16 4.17 3.80 3.49 3.04 2.56 2.35 2.18 2.07 1.82 1.63 1.45 1.34 1.21 1.12 1.13 1.17 1.16 1.03 1.02 1.10 1.07 1.14 1.28 1.29 1.14 1.35 1.54 1.50 1.15 0.89 0.69 0.44 0.44 0.44 0.51 0.64 0.71 0.82 1.13 1.30 1.29
3.16 3.25 2.82 2.51 2.47 2.38 2.12 1.99 1.94 1.88 1.71 1.40 1.12 0.98 0.92 0.88 0.85 0.83 0.84 0.86 0.92 0.88 0.93 1.01 1.16 1.31 1.19 1.14 1.32 1.51 1.31 1.02 0.85 0.64 0.58 0.62 0.69 0.80 0.84 0.98 1.10 1.21 1.30
2.36 2.23 2.06 1.95 1.91 2.03 1.99 1.78 1.63 1.35 1.22 1.04 0.86 0.83 0.84 0.77 0.71 0.65 0.65 0.76 0.83 0.85 0.95 0.84 0.90 1.09 1.19 1.05 1.08 1.14 1.19 1.24 1.21 0.96 0.69 0.61 0.69 0.75 0.78 0.80 0.91 1.07 1.17
1.65 1.65 1.54 1.74 1.82 1.83 1.79 1.72 1.65 1.39 1.18 1.05 0.99 1.00 0.92 0.83 0.72 0.63 0.60 0.62 0.71 0.81 0.88 0.87 0.91 0.92 0.98 0.95 0.93 0.94 1.02 1.13 1.12 1.09 0.89 0.69 0.67 0.61 0.65 0.72 0.82 0.89 1.00
1.00 1.07 1.14 1.35 1.54 1.58 1.54 1.54 1.54 1.42 1.26 1.09 0.99 0.93 0.83 0.78 0.71 0.63 0.61 0.64 0.63 0.65 0.70 0.76 0.80 0.82 0.87 0.89 0.87 0.90 0.99 0.99 0.98 1.10 1.00 0.84 0.77 0.64 0.69 0.76 0.88 0.97 0.99

GEFSSE_prec_meanprecacc_156.txt.gz
Total_Precipitation_Accumulation
0.13 0.11 0.14 0.13 0.12 0.13 0.16 0.21 0.22 0.20 0.17 0.14 0.09 0.07 0.05 0.04 0.05 0.06 0.07 0.10 0.13 0.18 0.21 0.22 0.25 0.26 0.24 0.23 0.23 0.22 0.25 0.29 0.31 0.30 0.36 0.43 0.49 0.61 0.80 0.88 0.96 0.68 0.55
0.05 0.08 0.14 0.13 0.12 0.13 0.16 0.17 0.21 0.20 0.17 0.15 0.14 0.10 0.07 0.06 0.06 0.08 0.10 0.12 0.15 0.19 0.19 0.18 0.17 0.18 0.16 0.17 0.18 0.19 0.24 0.32 0.43 0.52 0.58 0.56 0.62 0.75 0.86 0.82 0.97 0.60 0.50
0.03 0.06 0.11 0.14 0.12 0.12 0.14 0.15 0.18 0.18 0.17 0.15 0.14 0.12 0.10 0.08 0.09 0.10 0.13 0.14 0.16 0.19 0.18 0.16 0.16 0.15 0.14 0.13 0.15 0.19 0.25 0.38 0.60 0.83 1.04 0.81 0.49 0.70 0.78 0.73 0.60 0.43 0.42
0.03 0.03 0.06 0.12 0.13 0.12 0.12 0.14 0.16 0.17 0.16 0.15 0.14 0.13 0.12 0.13 0.13 0.14 0.15 0.17 0.18 0.19 0.18 0.16 0.14 0.14 0.12 0.12 0.16 0.23 0.33 0.47 0.68 1.09 1.33 0.74 0.35 0.44 0.52 0.51 0.43 0.33 0.34
0.07 0.05 0.06 0.10 0.12 0.12 0.12 0.13 0.15 0.16 0.16 0.16 0.15 0.15 0.14 0.15 0.16 0.18 0.19 0.21 0.21 0.19 0.17 0.16 0.14 0.11 0.11 0.13 0.18 0.26 0.37 0.51 0.78 1.11 0.95 0.77 0.66 0.44 0.38 0.41 0.37 0.29 0.29
0.11 0.09 0.11 0.12 0.12 0.12 0.12 0.12 0.13 0.14 0.14 0.16 0.16 0.17 0.17 0.17 0.19 0.23 0.23 0.23 0.23 0.19 0.15 0.15 0.13 0.10 0.11 0.13 0.19 0.27 0.41 0.61 0.83 0.67 0.60 0.65 0.63 0.47 0.38 0.49 0.43 0.37 0.34
0.18 0.15 0.16 0.18 0.18 0.16 0.14 0.15 0.15 0.15 0.15 0.17 0.19 0.20 0.18 0.19 0.22 0.24 0.24 0.22 0.22 0.19 0.15 0.15 0.17 0.14 0.17 0.20 0.25 0.33 0.48 0.72 0.70 0.50 0.56 0.79 0.70 0.49 0.48 0.66 0.68 0.55 0.41
0.32 0.24 0.21 0.24 0.25 0.22 0.20 0.21 0.20 0.18 0.19 0.19 0.18 0.19 0.19 0.21 0.22 0.21 0.22 0.24 0.24 0.22 0.18 0.15 0.15 0.17 0.22 0.25 0.30 0.37 0.49 0.61 0.45 0.48 0.56 0.69 0.57 0.53 0.63 0.85 0.89 0.74 0.57
0.40 0.37 0.32 0.25 0.24 0.25 0.28 0.30 0.28 0.24 0.25 0.24 0.20 0.19 0.19 0.22 0.22 0.22 0.23 0.28 0.27 0.24 0.23 0.22 0.17 0.17 0.20 0.23 0.27 0.33 0.47 0.61 0.58 0.60 0.61 0.59 0.44 0.47 0.68 0.86 0.81 0.75 0.67
0.56 0.52 0.49 0.43 0.37 0.30 0.29 0.33 0.35 0.32 0.31 0.27 0.25 0.24 0.26 0.29 0.29 0.30 0.27 0.33 0.34 0.31 0.31 0.31 0.28 0.25 0.28 0.31 0.38 0.43 0.54 0.51 0.64 0.62 0.75 0.76 0.53 0.62 0.86 0.98 0.87 0.80 0.74
0.83 0.71 0.61 0.54 0.48 0.40 0.31 0.30 0.36 0.37 0.37 0.33 0.36 0.36 0.40 0.52 0.62 0.65 0.61 0.65 0.64 0.60 0.57 0.55 0.54 0.50 0.44 0.37 0.52 0.72 0.61 0.54 0.71 0.77 0.84 0.84 0.69 0.86 1.15 1.21 1.13 1.00 0.90
1.12 0.80 0.70 0.58 0.52 0.42 0.35 0.44 0.51 0.53 0.55 0.53 0.65 0.70 0.87 1.05 1.06 0.85 1.01 1.10 1.07 1.10 0.99 0.96 1.13 0.95 0.73 0.65 1.08 1.45 0.76 0.62 0.71 0.74 0.76 0.79 1.03 1.32 1.54 1.42 1.29 1.21 1.08
1.17 1.12 1.05 0.85 0.73 0.66 0.71 0.64 0.70 0.80 0.93 0.90 0.90 1.04 1.30 1.23 1.06 0.96 1.05 1.35 1.50 1.57 1.50 1.56 1.67 1.33 1.29 1.48 1.67 1.57 1.08 1.01 0.96 0.95 0.95 1.16 1.51 1.79 1.89 1.65 1.50 1.41 1.31
1.47 1.70 1.76 1.43 1.33 1.19 1.03 0.92 0.84 0.86 1.04 1.18 1.35 1.39 1.55 1.62 1.51 1.35 1.37 1.55 1.71 1.85 2.18 2.15 2.05 1.91 1.86 1.78 1.75 1.54 1.38 1.37 1.24 1.38 1.61 1.54 1.65 1.91 2.09 1.93 1.72 1.62 1.56
2.08 2.28 2.45 2.01 1.88 1.75 1.70 1.53 1.25 1.31 1.41 1.49 1.67 1.78 1.87 2.04 2.04 1.97 1.89 1.82 1.69 1.81 2.15 2.36 2.26 2.29 2.21 2.06 1.87 1.71 1.61 1.56 1.49 1.58 1.71 1.92 1.91 1.89 2.03 2.16 2.01 1.83 1.71
2.60 2.70 2.81 2.67 2.64 2.46 2.21 2.15 2.05 1.76 1.73 1.74 1.77 1.76 1.94 2.17 2.42 2.51 2.40 2.26 1.95 1.86 1.94 2.25 2.36 2.51 2.42 2.29 1.74 1.66 1.66 1.69 1.72 1.69 1.77 2.25 2.28 1.90 1.82 1.96 2.11 2.12 1.98
3.49 3.35 3.33 3.30 3.49 3.28 2.86 2.55 2.27 2.11 2.07 2.12 2.12 2.02 2.14 2.35 2.54 2.55 2.36 2.01 1.80 1.84 1.94 1.89 1.95 2.25 2.07 1.94 1.78 1.88 1.90 1.82 1.73 1.68 1.75 2.10 2.13 1.79 1.59 1.60 1.80 1.98 2.07
4.28 4.16 3.93 3.52 3.72 3.66 3.37 3.12 2.80 2.52 2.54 2.42 2.16 2.07 2.05 2.22 2.18 2.23 1.89 1.52 1.58 1.77 1.84 1.87 1.83 1.95 1.95 2.00 2.03 1.99 1.94 1.82 1.52 1.40 1.32 1.36 1.52 1.31 1.40 1.59 1.59 1.59 1.86
4.62 4.78 4.71 4.54 4.19 3.93 3.74 3.55 3.34 3.13 2.78 2.37 2.15 2.06 1.88 1.69 1.64 1.73 1.50 1.38 1.44 1.58 1.66 1.60 1.79 1.92 1.85 1.91 1.87 1.82 1.50 1.33 1.18 1.05 1.00 0.93 1.01 1.09 1.11 1.24 1.33 1.38 1.73
4.53 5.02 5.12 5.08 4.67 4.20 3.73 3.32 3.20 3.00 2.73 2.45 2.19 1.95 1.64 1.43 1.36 1.52 1.41 1.28 1.38 1.49 1.52 1.67 1.81 1.89 1.67 1.62 1.53 1.35 1.09 0.84 0.77 0.73 0.63 0.70 0.76 0.75 0.85 0.99 1.23 1.12 1.53
4.16 4.79 4.85 5.01 4.44 3.79 3.22 2.81 2.64 2.39 2.14 2.10 1.96 1.77 1.63 1.44 1.36 1.48 1.33 1.25 1.22 1.30 1.29 1.41 1.52 1.55 1.30 1.48 1.71 1.30 0.92 0.69 0.61 0.49 0.46 0.53 0.56 0.63 0.81 1.04 1.22 1.23 1.35
3.61 4.27 4.25 3.87 3.55 3.09 2.62 2.40 2.22 2.12 1.87 1.69 1.52 1.42 1.27 1.17 1.18 1.20 1.19 1.05 1.04 1.13 1.11 1.18 1.30 1.31 1.16 1.38 1.58 1.57 1.22 0.94 0.73 0.47 0.47 0.47 0.55 0.67 0.75 0.85 1.15 1.31 1.30
3.25 3.33 2.89 2.59 2.53 2.43 2.20 2.08 2.02 1.95 1.76 1.46 1.18 1.06 0.99 0.93 0.90 0.88 0.87 0.89 0.94 0.90 0.96 1.04 1.18 1.32 1.20 1.15 1.34 1.55 1.35 1.05 0.88 0.67 0.63 0.68 0.77 0.87 0.90 1.02 1.13 1.23 1.31
2.42 2.29 2.15 2.04 1.99 2.11 2.08 1.86 1.70 1.40 1.25 1.09 0.92 0.92 0.92 0.82 0.75 0.71 0.71 0.80 0.87 0.88 0.98 0.87 0.92 1.11 1.20 1.07 1.09 1.16 1.20 1.27 1.23 0.97 0.72 0.67 0.77 0.84 0.84 0.84 0.93 1.09 1.19
1.76 1.74 1.64 1.84 1.91 1.90 1.84 1.77 1.71 1.45 1.22 1.10 1.08 1.11 1.02 0.90 0.77 0.69 0.67 0.67 0.76 0.85 0.91 0.90 0.93 0.94 0.99 0.96 0.94 0.96 1.04 1.14 1.13 1.10 0.90 0.73 0.71 0.64 0.68 0.74 0.85 0.92 1.02
1.10 1.16 1.23 1.45 1.64 1.66 1.61 1.58 1.58 1.48 1.33 1.16 1.07 1.01 0.93 0.88 0.80 0.72 0.69 0.71 0.69 0.70 0.74 0.79 0.83 0.84 0.89 0.91 0.89 0.92 1.01 1.00 1.00 1.12 1.02 0.86 0.78 0.66 0.71 0.79 0.90 0.99 1.01

GEFSSE_prec_meanprecacc_162.txt.gz
Total_Precipitation_Accumulation
0.15 0.14 0.17 0.15 0.13 0.14 0.17 0.21 0.23 0.21 0.18 0.15 0.10 0.08 0.06 0.05 0.05 0.07 0.08 0.11 0.15 0.21 0.25 0.26 0.27 0.28 0.27 0.25 0.25 0.25 0.27 0.31 0.34 0.34 0.40 0.49 0.55 0.67 0.85 0.93 1.00 0.70 0.61
0.05 0.09 0.15 0.15 0.13 0.14 0.16 0.18 0.21 0.21 0.18 0.16 0.14 0.11 0.08 0.07 0.07 0.09 0.11 0.14 0.18 0.23 0.23 0.20 0.19 0.20 0.18 0.19 0.20 0.20 0.25 0.34 0.48 0.56 0.63 0.61 0.68 0.80 0.90 0.86 1.01 0.66 0.56
0.04 0.06 0.12 0.16 0.13 0.14 0.14 0.15 0.18 0.18 0.18 0.16 0.14 0.13 0.11 0.09 0.10 0.12 0.15 0.17 0.19 0.22 0.21 0.18 0.18 0.17 0.15 0.14 0.17 0.20 0.27 0.41 0.67 0.88 1.07 0.83 0.52 0.74 0.82 0.77 0.65 0.50 0.49
0.03 0.04 0.06 0.13 0.14 0.12 0.13 0.15 0.17 0.18 0.17 0.15 0.14 0.14 0.13 0.14 0.16 0.17 0.18 0.19 0.20 0.20 0.19 0.18 0.15 0.15 0.14 0.13 0.17 0.25 0.36 0.50 0.72 1.11 1.34 0.76 0.36 0.47 0.57 0.54 0.48 0.38 0.40
0.07 0.05 0.07 0.11 0.13 0.13 0.12 0.14 0.16 0.17 0.16 0.16 0.16 0.16 0.15 0.17 0.19 0.20 0.21 0.23 0.22 0.20 0.19 0.17 0.15 0.13 0.13 0.15 0.20 0.28 0.41 0.54 0.79 1.11 0.95 0.77 0.67 0.47 0.42 0.45 0.41 0.33 0.32
0.12 0.10 0.12 0.14 0.13 0.13 0.13 0.13 0.14 0.15 0.15 0.16 0.16 0.18 0.19 0.18 0.21 0.25 0.25 0.25 0.24 0.21 0.16 0.16 0.15 0.12 0.13 0.16 0.21 0.30 0.45 0.63 0.83 0.67 0.61 0.65 0.63 0.49 0.42 0.53 0.46 0.40 0.37
0.20 0.17 0.17 0.20 0.19 0.16 0.15 0.15 0.16 0.16 0.16 0.17 0.20 0.21 0.20 0.21 0.24 0.26 0.26 0.24 0.24 0.20 0.16 0.17 0.19 0.17 0.20 0.23 0.29 0.39 0.52 0.74 0.70 0.50 0.57 0.80 0.71 0.51 0.52 0.71 0.71 0.59 0.45
0.36 0.27 0.23 0.27 0.26 0.22 0.20 0.22 0.21 0.19 0.20 0.20 0.19 0.20 0.20 0.22 0.24 0.23 0.24 0.26 0.25 0.23 0.20 0.18 0.18 0.21 0.26 0.29 0.35 0.44 0.54 0.62 0.46 0.48 0.56 0.69 0.58 0.56 0.67 0.88 0.92 0.77 0.59
0.43 0.41 0.35 0.28 0.26 0.26 0.29 0.30 0.29 0.25 0.26 0.25 0.21 0.20 0.20 0.23 0.24 0.24 0.25 0.29 0.28 0.25 0.25 0.24 0.20 0.20 0.23 0.27 0.33 0.39 0.51 0.63 0.58 0.60 0.62 0.59 0.45 0.49 0.70 0.87 0.83 0.78 0.69
0.59 0.55 0.52 0.45 0.38 0.31 0.30 0.34 0.36 0.33 0.33 0.29 0.26 0.25 0.28 0.31 0.31 0.31 0.29 0.35 0.36 0.32 0.32 0.33 0.30 0.28 0.31 0.35 0.43 0.50 0.60 0.53 0.65 0.63 0.76 0.76 0.54 0.63 0.88 0.99 0.89 0.81 0.76
0.85 0.73 0.63 0.56 0.49 0.41 0.32 0.32 0.37 0.39 0.38 0.34 0.37 0.38 0.42 0.54 0.63 0.66 0.62 0.68 0.66 0.62 0.59 0.58 0.57 0.53 0.47 0.42 0.59 0.80 0.66 0.55 0.72 0.78 0.85 0.84 0.70 0.88 1.17 1.22 1.15 1.02 0.92
1.13 0.80 0.71 0.59 0.53 0.43 0.35 0.44 0.52 0.54 0.57 0.53 0.66 0.71 0.87 1.06 1.07 0.86 1.03 1.14 1.10 1.13 1.02 0.98 1.16 0.97 0.74 0.67 1.14 1.50 0.78 0.64 0.72 0.74 0.76 0.81 1.04 1.32 1.54 1.43 1.29 1.22 1.10
1.17 1.13 1.05 0.85 0.74 0.67 0.71 0.65 0.71 0.80 0.94 0.91 0.91 1.04 1.30 1.23 1.07 0.97 1.07 1.38 1.53 1.60 1.51 1.57 1.68 1.34 1.30 1.49 1.69 1.59 1.09 1.03 0.97 0.96 0.95 1.18 1.52 1.80 1.90 1.66 1.51 1.42 1.32
1.47 1.70 1.77 1.43 1.34 1.20 1.03 0.92 0.85 0.86 1.04 1.18 1.35 1.40 1.56 1.62 1.52 1.37 1.39 1.57 1.73 1.86 2.19 2.15 2.06 1.92 1.87 1.80 1.77 1.57 1.40 1.39 1.26 1.39 1.62 1.55 1.67 1.92 2.10 1.94 1.73 1.63 1.57
2.08 2.28 2.46 2.03 1.89 1.77 1.71 1.54 1.26 1.31 1.42 1.50 1.68 1.80 1.89 2.05 2.06 1.99 1.90 1.84 1.69 1.82 2.16 2.38 2.27 2.30 2.22 2.08 1.89 1.73 1.63 1.58 1.51 1.59 1.73 1.95 1.93 1.91 2.05 2.17 2.03 1.84 1.72
2.61 2.71 2.83 2.70 2.67 2.49 2.25 2.19 2.07 1.78 1.74 1.75 1.79 1.77 1.96 2.19 2.44 2.54 2.43 2.28 1.95 1.87 1.95 2.26 2.38 2.52 2.44 2.31 1.77 1.69 1.68 1.71 1.73 1.69 1.78 2.28 2.31 1.93 1.85 1.99 2.13 2.13 1.99
3.51 3.37 3.38 3.36 3.56 3.32 2.90 2.60 2.30 2.13 2.08 2.14 2.14 2.04 2.17 2.38 2.57 2.58 2.39 2.03 1.82 1.86 1.95 1.90 1.97 2.27 2.09 1.96 1.82 1.91 1.92 1.84 1.74 1.68 1.75 2.11 2.15 1.81 1.62 1.64 1.85 2.01 2.10
4.33 4.21 4.00 3.59 3.82 3.75 3.42 3.16 2.84 2.57 2.57 2.47 2.21 2.12 2.09 2.26 2.21 2.26 1.91 1.53 1.61 1.80 1.86 1.88 1.85 1.97 1.97 2.03 2.06 2.02 1.97 1.83 1.53 1.40 1.32 1.36 1.53 1.32 1.42 1.63 1.63 1.64 1.91
4.71 4.89 4.83 4.67 4.32 4.03 3.83 3.64 3.43 3.22 2.86 2.45 2.23 2.13 1.92 1.73 1.67 1.77 1.53 1.41 1.47 1.61 1.69 1.61 1.80 1.95 1.89 1.95 1.91 1.86 1.55 1.37 1.20 1.05 1.01 0.94 1.02 1.10 1.12 1.26 1.37 1.42 1.78
4.68 5.18 5.31 5.26 4.83 4.31 3.83 3.41 3.30 3.11 2.82 2.54 2.27 2.02 1.70 1.49 1.40 1.56 1.45 1.34 1.42 1.53 1.55 1.68 1.82 1.91 1.70 1.67 1.59 1.41 1.15 0.88 0.79 0.74 0.64 0.71 0.78 0.76 0.85 0.99 1.25 1.14 1.56
4.30 4.93 4.98 5.15 4.59 3.91 3.31 2.88 2.74 2.49 2.21 2.18 2.05 1.85 1.69 1.50 1.41 1.53 1.38 1.30 1.26 1.33 1.32 1.43 1.55 1.58 1.35 1.52 1.77 1.35 0.95 0.72 0.63 0.50 0.48 0.55 0.58 0.65 0.82 1.06 1.22 1.24 1.36
3.69 4.36 4.37 3.99 3.68 3.21 2.74 2.51 2.33 2.22 1.97 1.79 1.62 1.51 1.33 1.23 1.24 1.25 1.24 1.10 1.07 1.15 1.14 1.22 1.33 1.34 1.20 1.41 1.62 1.61 1.25 0.95 0.75 0.49 0.48 0.49 0.57 0.69 0.77 0.87 1.16 1.32 1.30
3.35 3.43 2.99 2.71 2.68 2.57 2.35 2.22 2.13 2.05 1.85 1.53 1.26 1.14 1.07 1.00 0.96 0.93 0.92 0.93 0.98 0.93 0.99 1.08 1.22 1.36 1.24 1.18 1.37 1.57 1.36 1.07 0.89 0.68 0.64 0.70 0.79 0.88 0.91 1.03 1.14 1.24 1.32
2.51 2.40 2.25 2.15 2.12 2.24 2.20 1.99 1.80 1.46 1.29 1.13 0.99 1.01 1.01 0.90 0.83 0.78 0.77 0.87 0.92 0.92 1.02 0.91 0.96 1.15 1.24 1.11 1.12 1.17 1.22 1.28 1.24 0.98 0.73 0.68 0.78 0.85 0.86 0.86 0.95 1.11 1.21
1.84 1.85 1.77 1.97 2.03 2.01 1.94 1.87 1.82 1.55 1.29 1.18 1.17 1.22 1.13 1.00 0.86 0.76 0.74 0.75 0.83 0.91 0.96 0.95 0.97 0.97 1.02 0.99 0.98 0.99 1.07 1.16 1.15 1.11 0.91 0.73 0.72 0.66 0.70 0.76 0.87 0.94 1.04
1.17 1.25 1.32 1.53 1.73 1.76 1.71 1.68 1.67 1.57 1.40 1.21 1.12 1.09 1.03 0.98 0.90 0.80 0.77 0.81 0.79 0.78 0.79 0.84 0.88 0.88 0.92 0.94 0.93 0.95 1.04 1.02 1.02 1.14 1.03 0.86 0.79 0.67 0.72 0.80 0.91 1.01 1.03

GEFSSE_prec_meanprecacc_168.txt.gz
Total_Precipitation_Accumulation
0.16 0.16 0.20 0.17 0.15 0.16 0.20 0.24 0.26 0.23 0.20 0.17 0.12 0.09 0.08 0.07 0.07 0.09 0.11 0.15 0.19 0.24 0.28 0.29 0.30 0.30 0.29 0.28 0.28 0.28 0.29 0.33 0.37 0.40 0.44 0.53 0.62 0.75 0.92 0.99 1.08 0.80 0.71
0.06 0.10 0.18 0.17 0.15 0.16 0.19 0.20 0.23 0.23 0.20 0.17 0.16 0.13 0.10 0.09 0.09 0.11 0.13 0.17 0.22 0.27 0.26 0.22 0.21 0.21 0.21 0.21 0.22 0.23 0.27 0.37 0.53 0.62 0.67 0.67 0.74 0.85 0.95 0.91 1.08 0.77 0.66
0.04 0.07 0.14 0.18 0.15 0.15 0.17 0.18 0.20 0.21 0.20 0.18 0.16 0.15 0.12 0.11 0.12 0.15 0.18 0.20 0.23 0.26 0.23 0.19 0.19 0.19 0.17 0.16 0.19 0.23 0.29 0.44 0.74 0.94 1.11 0.89 0.58 0.78 0.86 0.80 0.71 0.59 0.59
0.03 0.04 0.07 0.14 0.15 0.14 0.14 0.17 0.19 0.20 0.19 0.17 0.16 0.16 0.16 0.17 0.19 0.23 0.23 0.22 0.24 0.23 0.21 0.19 0.16 0.17 0.15 0.15 0.19 0.28 0.39 0.54 0.76 1.15 1.38 0.81 0.41 0.52 0.61 0.57 0.51 0.43 0.48
0.08 0.06 0.08 0.12 0.14 0.14 0.14 0.16 0.18 0.18 0.18 0.18 0.18 0.19 0.20 0.21 0.23 0.25 0.25 0.26 0.25 0.23 0.21 0.20 0.17 0.14 0.15 0.17 0.22 0.31 0.44 0.56 0.82 1.13 0.99 0.82 0.73 0.53 0.47 0.50 0.45 0.38 0.38
0.12 0.10 0.14 0.16 0.15 0.15 0.15 0.15 0.16 0.17 0.17 0.18 0.18 0.21 0.22 0.22 0.25 0.30 0.29 0.28 0.26 0.24 0.19 0.18 0.18 0.15 0.15 0.18 0.24 0.34 0.48 0.66 0.86 0.68 0.63 0.70 0.68 0.54 0.47 0.58 0.51 0.45 0.41
0.21 0.19 0.21 0.24 0.22 0.19 0.17 0.17 0.18 0.17 0.18 0.19 0.22 0.23 0.23 0.24 0.28 0.30 0.29 0.26 0.25 0.23 0.18 0.18 0.21 0.20 0.23 0.27 0.33 0.42 0.55 0.75 0.71 0.51 0.59 0.85 0.77 0.56 0.56 0.75 0.74 0.62 0.48
0.36 0.29 0.27 0.32 0.31 0.26 0.23 0.23 0.22 0.21 0.22 0.22 0.21 0.22 0.23 0.25 0.28 0.26 0.27 0.28 0.27 0.24 0.22 0.20 0.21 0.25 0.31 0.34 0.40 0.47 0.56 0.63 0.46 0.48 0.59 0.75 0.63 0.61 0.71 0.91 0.95 0.80 0.62
0.44 0.42 0.37 0.32 0.30 0.30 0.32 0.34 0.32 0.27 0.28 0.27 0.23 0.23 0.23 0.26 0.28 0.27 0.28 0.32 0.30 0.27 0.28 0.28 0.23 0.24 0.27 0.32 0.37 0.42 0.52 0.63 0.59 0.61 0.64 0.64 0.48 0.54 0.74 0.91 0.88 0.83 0.73
0.60 0.57 0.56 0.48 0.42 0.36 0.34 0.38 0.39 0.35 0.35 0.31 0.29 0.28 0.32 0.36 0.36 0.36 0.32 0.38 0.38 0.35 0.36 0.37 0.33 0.32 0.36 0.41 0.48 0.54 0.62 0.53 0.65 0.64 0.79 0.79 0.57 0.67 0.92 1.02 0.93 0.85 0.80
0.86 0.77 0.68 0.59 0.52 0.46 0.36 0.34 0.40 0.41 0.41 0.37 0.41 0.40 0.46 0.60 0.68 0.70 0.65 0.71 0.68 0.64 0.63 0.62 0.62 0.58 0.52 0.47 0.63 0.84 0.68 0.55 0.73 0.80 0.88 0.86 0.75 0.93 1.22 1.24 1.18 1.04 0.95
1.14 0.86 0.78 0.61 0.55 0.45 0.37 0.47 0.56 0.57 0.59 0.57 0.72 0.75 0.91 1.11 1.12 0.89 1.06 1.18 1.13 1.15 1.04 1.01 1.20 1.01 0.78 0.71 1.18 1.53 0.80 0.64 0.73 0.76 0.78 0.82 1.08 1.37 1.59 1.47 1.32 1.24 1.12
1.18 1.16 1.08 0.87 0.75 0.69 0.73 0.67 0.74 0.84 0.97 0.94 0.96 1.08 1.34 1.27 1.11 1.00 1.10 1.43 1.57 1.63 1.54 1.59 1.70 1.37 1.34 1.54 1.73 1.60 1.10 1.03 0.98 0.97 0.98 1.20 1.57 1.85 1.94 1.69 1.53 1.44 1.34
1.49 1.73 1.79 1.45 1.35 1.22 1.05 0.95 0.87 0.88 1.06 1.20 1.38 1.43 1.59 1.66 1.56 1.40 1.42 1.60 1.77 1.90 2.24 2.19 2.09 1.95 1.90 1.83 1.80 1.58 1.41 1.39 1.26 1.40 1.65 1.57 1.70 1.96 2.13 1.96 1.75 1.64 1.58
2.09 2.31 2.48 2.04 1.91 1.78 1.73 1.56 1.28 1.33 1.44 1.52 1.70 1.82 1.93 2.09 2.09 2.03 1.93 1.86 1.72 1.85 2.19 2.41 2.29 2.34 2.26 2.11 1.91 1.75 1.64 1.59 1.51 1.60 1.75 1.96 1.96 1.94 2.07 2.20 2.06 1.85 1.73
2.62 2.72 2.84 2.70 2.69 2.51 2.26 2.21 2.09 1.80 1.76 1.77 1.82 1.80 2.00 2.22 2.48 2.58 2.47 2.31 1.99 1.90 2.00 2.30 2.41 2.57 2.48 2.35 1.80 1.71 1.70 1.72 1.75 1.70 1.80 2.30 2.33 1.94 1.88 2.04 2.18 2.17 2.01
3.52 3.38 3.39 3.37 3.58 3.36 2.93 2.62 2.33 2.16 2.11 2.17 2.17 2.07 2.20 2.41 2.62 2.63 2.42 2.08 1.87 1.90 2.01 1.96 2.01 2.31 2.13 2.01 1.87 1.95 1.94 1.87 1.76 1.71 1.78 2.14 2.18 1.83 1.65 1.67 1.89 2.06 2.14
4.36 4.23 4.01 3.62 3.89 3.83 3.47 3.18 2.86 2.60 2.62 2.51 2.25 2.16 2.13 2.29 2.25 2.30 1.95 1.58 1.66 1.85 1.91 1.95 1.91 2.02 2.03 2.10 2.13 2.07 2.01 1.87 1.55 1.43 1.36 1.40 1.56 1.34 1.44 1.64 1.65 1.66 1.93
4.77 4.94 4.87 4.74 4.39 4.07 3.86 3.68 3.47 3.26 2.91 2.50 2.28 2.17 1.97 1.77 1.70 1.81 1.59 1.47 1.52 1.67 1.75 1.66 1.86 2.01 1.96 2.02 1.98 1.92 1.60 1.43 1.25 1.08 1.03 0.97 1.06 1.14 1.15 1.28 1.38 1.43 1.80
4.73 5.24 5.38 5.35 4.93 4.39 3.90 3.47 3.34 3.15 2.87 2.59 2.32 2.08 1.76 1.54 1.45 1.62 1.51 1.41 1.47 1.59 1.64 1.76 1.91 1.98 1.78 1.74 1.64 1.45 1.20 0.92 0.83 0.79 0.68 0.74 0.82 0.80 0.86 1.00 1.27 1.16 1.57
4.32 4.98 5.06 5.22 4.66 4.00 3.40 2.95 2.80 2.55 2.26 2.22 2.10 1.93 1.76 1.56 1.48 1.60 1.44 1.37 1.32 1.39 1.40 1.51 1.63 1.65 1.41 1.59 1.84 1.41 0.98 0.74 0.65 0.54 0.51 0.58 0.61 0.67 0.84 1.07 1.24 1.26 1.39
3.71 4.40 4.44 4.07 3.76 3.28 2.83 2.60 2.41 2.30 2.03 1.84 1.70 1.60 1.41 1.30 1.30 1.31 1.30 1.18 1.15 1.23 1.22 1.30 1.42 1.42 1.26 1.47 1.71 1.70 1.31 1.00 0.78 0.51 0.50 0.52 0.59 0.72 0.79 0.89 1.18 1.35 1.32
3.37 3.47 3.06 2.81 2.78 2.69 2.46 2.32 2.20 2.12 1.94 1.62 1.34 1.21 1.13 1.06 1.04 1.00 0.99 1.02 1.08 1.01 1.07 1.16 1.30 1.45 1.33 1.24 1.45 1.66 1.44 1.14 0.95 0.71 0.65 0.71 0.83 0.92 0.94 1.06 1.15 1.25 1.34
2.52 2.43 2.32 2.24 2.19 2.35 2.32 2.08 1.87 1.52 1.37 1.23 1.09 1.09 1.09 0.98 0.92 0.87 0.87 0.98 1.04 1.02 1.11 0.98 1.03 1.23 1.34 1.19 1.20 1.25 1.29 1.34 1.31 1.03 0.76 0.70 0.81 0.89 0.89 0.88 0.97 1.12 1.22
1.86 1.89 1.82 2.03 2.08 2.07 2.02 1.95 1.89 1.61 1.37 1.26 1.25 1.32 1.23 1.09 0.94 0.85 0.85 0.88 0.97 1.01 1.06 1.04 1.07 1.04 1.09 1.07 1.05 1.06 1.13 1.23 1.22 1.18 0.97 0.79 0.78 0.71 0.73 0.80 0.90 0.97 1.05
1.20 1.29 1.36 1.58 1.77 1.80 1.76 1.74 1.74 1.66 1.50 1.28 1.18 1.18 1.13 1.07 0.97 0.86 0.85 0.92 0.92 0.89 0.91 0.96 0.98 0.96 1.00 1.02 1.01 1.03 1.11 1.10 1.09 1.22 1.10 0.92 0.85 0.72 0.78 0.84 0.94 1.03 1.06

GEFSSE_prec_meanprecacc_174.txt.gz
Total_Precipitation_Accumulation
0.17 0.16 0.21 0.19 0.18 0.19 0.23 0.27 0.29 0.25 0.22 0.19 0.13 0.10 0.09 0.09 0.09 0.10 0.12 0.17 0.22 0.28 0.32 0.32 0.33 0.34 0.33 0.32 0.32 0.31 0.32 0.35 0.40 0.44 0.48 0.57 0.65 0.78 1.00 1.13 1.26 0.91 0.77
0.06 0.10 0.18 0.19 0.17 0.19 0.22 0.22 0.27 0.25 0.23 0.20 0.18 0.15 0.12 0.12 0.13 0.13 0.16 0.20 0.25 0.30 0.29 0.24 0.24 0.25 0.25 0.24 0.26 0.26 0.30 0.40 0.57 0.68 0.73 0.70 0.76 0.88 1.00 1.01 1.24 0.87 0.72
0.04 0.07 0.14 0.19 0.17 0.18 0.19 0.20 0.23 0.23 0.23 0.21 0.20 0.18 0.15 0.15 0.17 0.19 0.21 0.23 0.27 0.29 0.25 0.22 0.21 0.22 0.22 0.19 0.21 0.25 0.31 0.48 0.81 1.04 1.21 0.95 0.61 0.82 0.93 0.86 0.78 0.67 0.66
0.03 0.04 0.08 0.15 0.17 0.15 0.16 0.19 0.22 0.23 0.22 0.20 0.19 0.20 0.20 0.22 0.25 0.27 0.28 0.27 0.27 0.26 0.23 0.21 0.18 0.20 0.20 0.18 0.22 0.29 0.41 0.57 0.85 1.31 1.51 0.90 0.47 0.55 0.64 0.61 0.57 0.50 0.55
0.08 0.06 0.08 0.13 0.15 0.16 0.16 0.19 0.20 0.21 0.20 0.21 0.20 0.21 0.23 0.25 0.28 0.29 0.30 0.31 0.29 0.26 0.23 0.22 0.19 0.16 0.18 0.20 0.24 0.33 0.47 0.61 0.93 1.30 1.08 0.91 0.78 0.54 0.49 0.55 0.52 0.44 0.43
0.12 0.11 0.14 0.17 0.16 0.17 0.16 0.17 0.17 0.19 0.19 0.20 0.20 0.22 0.25 0.25 0.29 0.34 0.32 0.32 0.29 0.26 0.21 0.20 0.21 0.18 0.18 0.20 0.26 0.35 0.50 0.72 0.99 0.77 0.70 0.79 0.72 0.56 0.52 0.65 0.57 0.49 0.45
0.22 0.20 0.21 0.24 0.23 0.20 0.19 0.18 0.19 0.19 0.19 0.22 0.24 0.25 0.26 0.27 0.32 0.34 0.31 0.30 0.28 0.26 0.20 0.20 0.25 0.25 0.27 0.29 0.35 0.44 0.57 0.83 0.81 0.57 0.69 0.93 0.80 0.60 0.62 0.79 0.77 0.65 0.51
0.37 0.29 0.27 0.33 0.32 0.27 0.25 0.25 0.24 0.22 0.23 0.24 0.24 0.25 0.25 0.28 0.33 0.32 0.30 0.32 0.30 0.28 0.25 0.23 0.25 0.29 0.35 0.36 0.41 0.49 0.59 0.70 0.51 0.52 0.66 0.79 0.65 0.65 0.74 0.93 0.97 0.83 0.66
0.44 0.42 0.37 0.33 0.31 0.31 0.34 0.35 0.34 0.29 0.30 0.29 0.25 0.24 0.25 0.28 0.32 0.31 0.32 0.36 0.34 0.30 0.31 0.29 0.24 0.26 0.29 0.34 0.38 0.43 0.54 0.68 0.63 0.66 0.68 0.66 0.49 0.56 0.76 0.93 0.90 0.86 0.76
0.60 0.57 0.56 0.49 0.44 0.37 0.36 0.40 0.41 0.38 0.37 0.33 0.31 0.29 0.34 0.38 0.39 0.39 0.35 0.41 0.39 0.36 0.38 0.38 0.34 0.33 0.37 0.43 0.49 0.54 0.63 0.56 0.70 0.70 0.82 0.80 0.58 0.70 0.95 1.06 0.96 0.87 0.82
0.87 0.77 0.69 0.59 0.53 0.48 0.38 0.37 0.42 0.44 0.43 0.40 0.44 0.43 0.54 0.72 0.75 0.76 0.69 0.73 0.70 0.65 0.64 0.65 0.63 0.59 0.54 0.48 0.64 0.86 0.70 0.58 0.81 0.88 0.91 0.87 0.77 0.95 1.24 1.27 1.20 1.06 0.97
1.16 0.86 0.79 0.62 0.57 0.48 0.40 0.50 0.61 0.62 0.65 0.67 0.79 0.83 1.04 1.25 1.23 0.98 1.10 1.20 1.15 1.17 1.06 1.03 1.22 1.05 0.82 0.73 1.19 1.55 0.82 0.65 0.75 0.79 0.80 0.83 1.09 1.38 1.60 1.48 1.33 1.26 1.15
1.19 1.17 1.10 0.88 0.77 0.72 0.77 0.70 0.79 0.91 1.06 1.04 1.02 1.16 1.44 1.33 1.17 1.07 1.16 1.47 1.62 1.68 1.60 1.63 1.75 1.44 1.38 1.56 1.75 1.62 1.12 1.03 1.00 0.99 0.99 1.21 1.57 1.85 1.95 1.71 1.54 1.45 1.36
1.49 1.73 1.79 1.46 1.37 1.24 1.08 0.99 0.92 0.93 1.12 1.26 1.44 1.49 1.64 1.72 1.64 1.48 1.52 1.69 1.84 1.98 2.34 2.26 2.16 2.02 1.96 1.88 1.83 1.59 1.41 1.40 1.29 1.44 1.69 1.59 1.72 1.98 2.14 1.97 1.76 1.66 1.59
2.12 2.32 2.49 2.06 1.93 1.81 1.77 1.63 1.36 1.39 1.48 1.58 1.75 1.89 1.97 2.13 2.15 2.09 1.99 1.94 1.78 1.88 2.24 2.47 2.35 2.40 2.33 2.17 1.93 1.76 1.65 1.59 1.52 1.62 1.78 1.97 1.97 1.95 2.09 2.22 2.07 1.87 1.75
2.64 2.74 2.86 2.72 2.71 2.54 2.30 2.27 2.19 1.86 1.81 1.81 1.85 1.84 2.03 2.26 2.54 2.64 2.52 2.37 2.04 1.94 2.04 2.33 2.44 2.62 2.54 2.39 1.82 1.72 1.72 1.73 1.76 1.72 1.83 2.32 2.34 1.95 1.89 2.05 2.19 2.19 2.03
3.54 3.41 3.42 3.39 3.60 3.39 2.97 2.66 2.38 2.20 2.14 2.20 2.20 2.11 2.24 2.45 2.68 2.68 2.48 2.13 1.92 1.94 2.05 2.00 2.05 2.35 2.17 2.05 1.90 1.97 1.97 1.90 1.77 1.74 1.81 2.19 2.21 1.84 1.65 1.68 1.90 2.06 2.15
4.37 4.24 4.03 3.65 3.91 3.86 3.51 3.23 2.93 2.65 2.66 2.57 2.30 2.20 2.17 2.33 2.29 2.34 2.00 1.63 1.73 1.91 1.97 2.00 1.95 2.06 2.07 2.15 2.18 2.13 2.07 1.92 1.57 1.45 1.38 1.43 1.62 1.37 1.46 1.65 1.66 1.67 1.94
4.79 4.95 4.89 4.77 4.43 4.12 3.92 3.74 3.54 3.33 2.97 2.57 2.38 2.28 2.03 1.82 1.72 1.84 1.64 1.54 1.59 1.76 1.80 1.70 1.91 2.06 2.02 2.08 2.01 1.98 1.66 1.49 1.30 1.11 1.05 0.99 1.10 1.19 1.19 1.29 1.38 1.44 1.80
4.74 5.25 5.40 5.39 4.97 4.44 3.94 3.53 3.42 3.21 2.93 2.65 2.40 2.14 1.81 1.60 1.48 1.66 1.56 1.46 1.51 1.65 1.71 1.83 1.98 2.04 1.83 1.78 1.66 1.51 1.25 0.97 0.88 0.83 0.70 0.75 0.84 0.82 0.90 1.04 1.28 1.16 1.58
4.32 4.99 5.09 5.26 4.71 4.04 3.46 3.02 2.88 2.63 2.34 2.29 2.16 1.97 1.80 1.61 1.52 1.65 1.49 1.45 1.37 1.46 1.47 1.57 1.68 1.70 1.45 1.62 1.90 1.50 1.04 0.78 0.70 0.59 0.55 0.60 0.61 0.69 0.87 1.12 1.27 1.30 1.40
3.72 4.41 4.47 4.10 3.80 3.31 2.88 2.69 2.51 2.40 2.10 1.91 1.76 1.69 1.48 1.37 1.37 1.35 1.37 1.25 1.24 1.33 1.31 1.38 1.51 1.50 1.34 1.53 1.81 1.85 1.43 1.11 0.85 0.57 0.53 0.54 0.60 0.73 0.82 0.91 1.22 1.39 1.36
3.37 3.48 3.08 2.84 2.82 2.74 2.53 2.40 2.29 2.23 2.04 1.72 1.42 1.31 1.21 1.14 1.11 1.07 1.08 1.11 1.19 1.09 1.17 1.26 1.40 1.56 1.44 1.33 1.53 1.78 1.58 1.30 1.06 0.78 0.68 0.75 0.86 0.96 0.97 1.10 1.19 1.30 1.38
2.53 2.44 2.34 2.27 2.24 2.41 2.40 2.17 1.98 1.65 1.50 1.37 1.20 1.19 1.20 1.07 1.00 0.96 0.97 1.10 1.15 1.11 1.24 1.06 1.14 1.37 1.49 1.30 1.29 1.35 1.37 1.46 1.47 1.15 0.83 0.74 0.86 0.94 0.93 0.92 1.02 1.21 1.31
1.87 1.90 1.84 2.07 2.14 2.15 2.11 2.04 2.01 1.74 1.51 1.39 1.38 1.45 1.39 1.20 1.03 0.93 0.96 1.03 1.11 1.12 1.17 1.16 1.23 1.17 1.21 1.18 1.16 1.19 1.28 1.38 1.35 1.31 1.12 0.91 0.86 0.76 0.78 0.87 1.00 1.10 1.17
1.22 1.30 1.40 1.64 1.83 1.89 1.85 1.83 1.84 1.78 1.65 1.41 1.31 1.32 1.25 1.18 1.06 0.95 0.96 1.07 1.07 1.03 1.05 1.08 1.10 1.07 1.13 1.16 1.14 1.15 1.23 1.23 1.21 1.34 1.26 1.07 0.98 0.80 0.85 0.91 1.02 1.11 1.13

GEFSSE_prec_meanprecacc_180.txt.gz
Total_Precipitation_Accumulation
0.19 0.18 0.22 0.20 0.19 0.21 0.24 0.28 0.29 0.26 0.23 0.20 0.14 0.11 0.10 0.10 0.10 0.12 0.14 0.19 0.24 0.30 0.34 0.36 0.37 0.38 0.39 0.38 0.38 0.36 0.38 0.42 0.47 0.50 0.53 0.62 0.72 0.83 1.05 1.22 1.31 0.93 0.80
0.06 0.11 0.19 0.19 0.18 0.21 0.22 0.23 0.27 0.26 0.24 0.20 0.19 0.16 0.13 0.14 0.14 0.15 0.17 0.21 0.27 0.32 0.31 0.27 0.27 0.29 0.30 0.30 0.30 0.30 0.36 0.48 0.65 0.75 0.77 0.74 0.82 0.93 1.05 1.06 1.27 0.90 0.75
0.04 0.08 0.15 0.20 0.18 0.19 0.20 0.20 0.24 0.24 0.23 0.21 0.21 0.20 0.17 0.18 0.19 0.21 0.23 0.25 0.29 0.30 0.27 0.24 0.25 0.26 0.25 0.23 0.25 0.29 0.37 0.56 0.89 1.10 1.24 0.97 0.66 0.87 0.99 0.90 0.81 0.69 0.69
0.03 0.04 0.08 0.15 0.18 0.16 0.17 0.20 0.23 0.24 0.22 0.21 0.20 0.21 0.22 0.24 0.26 0.29 0.30 0.28 0.28 0.27 0.24 0.23 0.21 0.23 0.23 0.21 0.25 0.34 0.46 0.62 0.93 1.38 1.53 0.91 0.49 0.58 0.68 0.65 0.60 0.53 0.57
0.08 0.06 0.08 0.13 0.16 0.16 0.17 0.20 0.22 0.22 0.21 0.22 0.21 0.22 0.25 0.27 0.29 0.31 0.32 0.33 0.30 0.27 0.24 0.23 0.21 0.19 0.20 0.21 0.26 0.36 0.52 0.69 1.04 1.35 1.10 0.91 0.80 0.58 0.54 0.59 0.54 0.47 0.45
0.12 0.11 0.14 0.17 0.17 0.17 0.17 0.18 0.19 0.19 0.20 0.21 0.21 0.23 0.26 0.27 0.31 0.35 0.34 0.33 0.30 0.27 0.22 0.22 0.23 0.20 0.20 0.22 0.28 0.39 0.56 0.83 1.08 0.80 0.72 0.79 0.74 0.60 0.57 0.72 0.63 0.52 0.46
0.22 0.20 0.21 0.24 0.23 0.20 0.20 0.19 0.20 0.19 0.20 0.22 0.24 0.26 0.27 0.28 0.33 0.35 0.32 0.31 0.29 0.26 0.21 0.22 0.27 0.27 0.28 0.31 0.38 0.47 0.64 0.93 0.84 0.59 0.70 0.93 0.81 0.63 0.66 0.85 0.82 0.67 0.52
0.37 0.29 0.27 0.33 0.32 0.27 0.26 0.26 0.24 0.23 0.24 0.25 0.24 0.25 0.26 0.29 0.34 0.33 0.31 0.33 0.31 0.28 0.26 0.24 0.26 0.30 0.36 0.37 0.42 0.52 0.66 0.79 0.54 0.54 0.66 0.80 0.67 0.68 0.77 0.95 0.99 0.84 0.67
0.45 0.42 0.37 0.33 0.31 0.31 0.34 0.36 0.34 0.29 0.30 0.29 0.26 0.25 0.25 0.29 0.33 0.32 0.33 0.37 0.35 0.32 0.32 0.31 0.25 0.27 0.30 0.35 0.40 0.46 0.61 0.77 0.67 0.68 0.69 0.67 0.52 0.59 0.79 0.95 0.92 0.88 0.77
0.62 0.57 0.56 0.50 0.44 0.37 0.36 0.40 0.42 0.38 0.37 0.34 0.31 0.30 0.35 0.40 0.41 0.40 0.36 0.42 0.40 0.37 0.39 0.40 0.35 0.34 0.38 0.44 0.51 0.58 0.69 0.62 0.73 0.71 0.83 0.81 0.61 0.72 0.97 1.08 0.98 0.88 0.83
0.91 0.78 0.69 0.60 0.53 0.48 0.38 0.37 0.43 0.45 0.44 0.42 0.46 0.46 0.56 0.73 0.76 0.77 0.69 0.74 0.70 0.66 0.66 0.66 0.64 0.60 0.55 0.49 0.68 0.92 0.77 0.64 0.86 0.90 0.93 0.88 0.79 0.97 1.26 1.28 1.21 1.07 0.98
1.17 0.88 0.81 0.63 0.57 0.48 0.40 0.50 0.61 0.62 0.65 0.68 0.81 0.85 1.05 1.27 1.26 1.01 1.12 1.22 1.17 1.18 1.08 1.06 1.25 1.07 0.83 0.75 1.24 1.60 0.88 0.72 0.80 0.81 0.82 0.85 1.11 1.39 1.60 1.48 1.34 1.27 1.15
1.20 1.19 1.11 0.88 0.77 0.72 0.78 0.71 0.79 0.91 1.06 1.05 1.03 1.17 1.45 1.36 1.20 1.10 1.17 1.49 1.64 1.70 1.62 1.65 1.78 1.48 1.42 1.60 1.78 1.65 1.16 1.08 1.04 1.01 1.00 1.23 1.59 1.86 1.96 1.72 1.55 1.46 1.36
1.50 1.75 1.81 1.47 1.39 1.26 1.09 1.01 0.94 0.95 1.13 1.27 1.46 1.50 1.65 1.73 1.65 1.50 1.54 1.74 1.87 2.01 2.37 2.28 2.19 2.06 2.02 1.91 1.85 1.63 1.45 1.43 1.34 1.47 1.70 1.60 1.72 1.99 2.15 1.99 1.77 1.66 1.60
2.13 2.34 2.50 2.07 1.95 1.82 1.78 1.65 1.40 1.42 1.51 1.60 1.78 1.92 1.98 2.14 2.16 2.11 2.02 1.97 1.82 1.92 2.26 2.50 2.38 2.44 2.38 2.21 1.96 1.79 1.69 1.62 1.54 1.63 1.79 1.98 1.98 1.96 2.10 2.23 2.08 1.87 1.76
2.65 2.75 2.87 2.73 2.72 2.56 2.31 2.30 2.26 1.91 1.88 1.88 1.92 1.87 2.06 2.28 2.55 2.66 2.54 2.39 2.07 1.99 2.08 2.36 2.47 2.64 2.56 2.41 1.85 1.75 1.75 1.76 1.77 1.73 1.84 2.32 2.35 1.96 1.90 2.06 2.21 2.20 2.04
3.55 3.41 3.43 3.40 3.63 3.42 2.99 2.70 2.43 2.23 2.19 2.26 2.25 2.15 2.26 2.46 2.69 2.69 2.50 2.16 1.95 1.98 2.09 2.05 2.09 2.38 2.20 2.07 1.93 2.01 2.00 1.93 1.79 1.75 1.82 2.19 2.21 1.85 1.66 1.69 1.91 2.08 2.17
4.38 4.25 4.03 3.66 3.95 3.90 3.55 3.27 2.96 2.69 2.71 2.63 2.37 2.26 2.20 2.35 2.30 2.36 2.03 1.68 1.77 1.96 2.03 2.07 2.01 2.10 2.11 2.20 2.21 2.17 2.10 1.95 1.60 1.47 1.39 1.44 1.62 1.37 1.46 1.65 1.67 1.68 1.96
4.80 4.96 4.90 4.80 4.47 4.15 3.95 3.76 3.58 3.36 3.00 2.61 2.45 2.35 2.09 1.86 1.75 1.88 1.67 1.58 1.63 1.81 1.85 1.74 1.95 2.11 2.07 2.11 2.05 2.03 1.71 1.53 1.35 1.15 1.08 1.01 1.11 1.20 1.19 1.30 1.40 1.45 1.82
4.75 5.27 5.43 5.42 5.00 4.47 3.98 3.56 3.46 3.25 2.97 2.68 2.44 2.19 1.85 1.65 1.53 1.71 1.60 1.48 1.54 1.67 1.74 1.85 2.01 2.07 1.87 1.81 1.70 1.57 1.31 1.02 0.94 0.89 0.75 0.78 0.86 0.84 0.90 1.05 1.29 1.18 1.59
4.34 5.01 5.11 5.27 4.74 4.07 3.49 3.05 2.92 2.68 2.39 2.33 2.19 2.02 1.86 1.68 1.59 1.73 1.54 1.49 1.40 1.47 1.50 1.59 1.72 1.74 1.50 1.66 1.99 1.63 1.12 0.84 0.77 0.69 0.63 0.64 0.65 0.71 0.89 1.15 1.31 1.34 1.44
3.74 4.43 4.48 4.12 3.82 3.33 2.92 2.73 2.56 2.46 2.17 1.99 1.85 1.82 1.64 1.49 1.45 1.43 1.44 1.31 1.28 1.37 1.36 1.42 1.55 1.54 1.38 1.59 1.91 1.99 1.55 1.20 0.92 0.64 0.59 0.59 0.66 0.79 0.87 0.97 1.29 1.48 1.47
3.39 3.50 3.10 2.88 2.87 2.79 2.59 2.48 2.37 2.32 2.14 1.84 1.56 1.50 1.45 1.27 1.22 1.16 1.15 1.18 1.25 1.15 1.22 1.31 1.46 1.61 1.48 1.38 1.62 1.90 1.70 1.38 1.12 0.83 0.73 0.82 0.93 1.03 1.06 1.21 1.31 1.44 1.53
2.56 2.49 2.41 2.34 2.31 2.47 2.48 2.26 2.06 1.74 1.59 1.49 1.35 1.34 1.36 1.23 1.16 1.06 1.04 1.16 1.22 1.18 1.29 1.11 1.19 1.43 1.56 1.36 1.36 1.42 1.43 1.53 1.53 1.19 0.87 0.81 0.93 1.01 1.02 1.04 1.15 1.36 1.48
1.92 1.96 1.91 2.14 2.21 2.21 2.19 2.13 2.10 1.83 1.61 1.50 1.57 1.72 1.60 1.35 1.13 1.01 1.02 1.10 1.17 1.17 1.22 1.21 1.28 1.24 1.28 1.24 1.24 1.26 1.35 1.48 1.43 1.38 1.17 0.96 0.93 0.82 0.85 0.96 1.13 1.28 1.34
1.26 1.36 1.47 1.70 1.90 1.96 1.91 1.91 1.93 1.87 1.76 1.51 1.43 1.46 1.37 1.25 1.11 1.01 1.03 1.15 1.14 1.10 1.10 1.13 1.17 1.14 1.19 1.22 1.21 1.22 1.32 1.31 1.27 1.40 1.31 1.10 1.03 0.85 0.91 0.99 1.14 1.25 1.27

GEFSSE_prec_meanprecacc_186.txt.gz
Total_Precipitation_Accumulation
0.23 0.22 0.25 0.22 0.21 0.22 0.25 0.29 0.31 0.27 0.24 0.21 0.15 0.13 0.12 0.12 0.12 0.14 0.18 0.21 0.27 0.34 0.40 0.44 0.44 0.45 0.45 0.44 0.42 0.41 0.42 0.47 0.52 0.54 0.58 0.68 0.80 0.92 1.15 1.32 1.37 0.98 0.85
0.08 0.13 0.22 0.21 0.20 0.22 0.23 0.23 0.28 0.27 0.25 0.22 0.20 0.17 0.15 0.15 0.15 0.17 0.19 0.24 0.29 0.35 0.35 0.33 0.32 0.34 0.36 0.35 0.35 0.35 0.40 0.53 0.70 0.81 0.84 0.83 0.92 1.00 1.13 1.14 1.34 0.96 0.81
0.06 0.08 0.16 0.21 0.19 0.19 0.20 0.21 0.25 0.25 0.24 0.23 0.22 0.21 0.18 0.19 0.20 0.22 0.24 0.27 0.31 0.33 0.30 0.27 0.30 0.31 0.30 0.26 0.28 0.32 0.41 0.61 0.95 1.18 1.29 1.00 0.71 0.95 1.07 0.98 0.88 0.75 0.74
0.05 0.05 0.08 0.16 0.18 0.17 0.17 0.20 0.23 0.25 0.23 0.23 0.22 0.23 0.23 0.25 0.28 0.31 0.31 0.30 0.31 0.30 0.27 0.26 0.24 0.26 0.25 0.23 0.27 0.37 0.50 0.67 0.97 1.41 1.54 0.92 0.51 0.66 0.75 0.71 0.67 0.57 0.61
0.08 0.06 0.09 0.14 0.16 0.17 0.17 0.20 0.22 0.23 0.22 0.23 0.23 0.25 0.27 0.29 0.31 0.32 0.33 0.34 0.31 0.29 0.27 0.26 0.24 0.20 0.22 0.23 0.29 0.39 0.56 0.74 1.08 1.36 1.10 0.92 0.82 0.65 0.60 0.65 0.60 0.51 0.49
0.13 0.11 0.14 0.17 0.17 0.18 0.17 0.18 0.19 0.21 0.21 0.22 0.22 0.25 0.28 0.29 0.32 0.36 0.35 0.35 0.32 0.29 0.24 0.26 0.26 0.22 0.22 0.24 0.32 0.43 0.61 0.89 1.11 0.81 0.72 0.80 0.78 0.67 0.63 0.77 0.68 0.56 0.49
0.23 0.20 0.22 0.25 0.24 0.21 0.21 0.20 0.21 0.20 0.21 0.23 0.25 0.27 0.29 0.30 0.34 0.37 0.34 0.32 0.30 0.28 0.22 0.24 0.30 0.29 0.32 0.35 0.42 0.52 0.70 0.99 0.87 0.60 0.71 0.94 0.85 0.69 0.71 0.89 0.86 0.69 0.54
0.38 0.29 0.28 0.34 0.33 0.28 0.27 0.27 0.26 0.24 0.25 0.26 0.25 0.26 0.28 0.30 0.35 0.34 0.32 0.34 0.32 0.29 0.27 0.26 0.28 0.34 0.41 0.41 0.48 0.57 0.71 0.82 0.55 0.55 0.68 0.81 0.71 0.73 0.81 0.98 1.01 0.86 0.69
0.46 0.43 0.37 0.34 0.32 0.32 0.35 0.38 0.36 0.30 0.31 0.31 0.27 0.26 0.27 0.31 0.34 0.33 0.34 0.38 0.36 0.33 0.34 0.33 0.28 0.29 0.33 0.38 0.45 0.52 0.67 0.80 0.67 0.68 0.69 0.69 0.56 0.63 0.82 0.98 0.94 0.89 0.80
0.62 0.58 0.56 0.50 0.44 0.37 0.37 0.42 0.44 0.40 0.38 0.35 0.33 0.32 0.37 0.42 0.43 0.41 0.37 0.43 0.41 0.39 0.43 0.43 0.38 0.35 0.41 0.48 0.57 0.66 0.76 0.66 0.75 0.72 0.83 0.83 0.65 0.76 1.00 1.11 0.99 0.90 0.86
0.91 0.79 0.70 0.60 0.53 0.48 0.39 0.38 0.44 0.46 0.46 0.43 0.47 0.48 0.58 0.74 0.77 0.78 0.70 0.74 0.71 0.68 0.70 0.70 0.67 0.62 0.59 0.54 0.75 0.99 0.81 0.67 0.87 0.91 0.93 0.91 0.84 1.03 1.29 1.31 1.23 1.09 1.00
1.17 0.88 0.81 0.63 0.57 0.48 0.40 0.51 0.62 0.63 0.67 0.69 0.81 0.85 1.06 1.27 1.27 1.01 1.13 1.24 1.19 1.21 1.12 1.10 1.29 1.10 0.85 0.77 1.28 1.63 0.89 0.73 0.81 0.81 0.83 0.87 1.15 1.43 1.63 1.50 1.35 1.28 1.17
1.20 1.19 1.12 0.89 0.78 0.73 0.78 0.71 0.79 0.92 1.07 1.05 1.04 1.17 1.45 1.36 1.21 1.11 1.19 1.50 1.66 1.73 1.64 1.67 1.80 1.49 1.43 1.61 1.80 1.67 1.17 1.09 1.05 1.02 1.01 1.24 1.63 1.90 1.97 1.73 1.56 1.47 1.37
1.51 1.75 1.81 1.48 1.39 1.26 1.10 1.01 0.95 0.96 1.14 1.28 1.47 1.52 1.66 1.74 1.66 1.51 1.55 1.75 1.89 2.03 2.38 2.30 2.20 2.08 2.03 1.92 1.87 1.64 1.45 1.44 1.34 1.47 1.70 1.61 1.76 2.03 2.18 2.00 1.78 1.67 1.61
2.14 2.35 2.52 2.08 1.96 1.83 1.79 1.67 1.43 1.45 1.53 1.62 1.81 1.95 2.01 2.16 2.18 2.12 2.03 1.98 1.84 1.94 2.28 2.52 2.40 2.45 2.39 2.22 1.97 1.80 1.70 1.63 1.55 1.63 1.79 2.00 2.01 2.00 2.13 2.25 2.09 1.88 1.77
2.66 2.77 2.90 2.76 2.75 2.58 2.34 2.34 2.31 1.97 1.93 1.92 1.96 1.90 2.09 2.30 2.57 2.67 2.55 2.40 2.09 2.01 2.09 2.39 2.50 2.66 2.58 2.43 1.86 1.75 1.75 1.77 1.78 1.73 1.84 2.34 2.38 1.99 1.93 2.09 2.23 2.21 2.05
3.57 3.44 3.46 3.44 3.67 3.48 3.05 2.75 2.49 2.31 2.25 2.30 2.29 2.18 2.29 2.49 2.70 2.70 2.51 2.18 1.97 1.99 2.11 2.07 2.12 2.41 2.21 2.08 1.95 2.02 2.02 1.95 1.81 1.77 1.84 2.20 2.23 1.88 1.70 1.72 1.94 2.10 2.20
4.40 4.29 4.08 3.70 4.01 3.95 3.60 3.32 3.02 2.76 2.77 2.69 2.43 2.32 2.24 2.37 2.31 2.37 2.04 1.71 1.81 1.98 2.05 2.09 2.03 2.13 2.15 2.23 2.24 2.19 2.13 1.98 1.62 1.50 1.42 1.46 1.63 1.39 1.49 1.69 1.70 1.72 1.99
4.82 5.00 4.96 4.85 4.50 4.18 3.98 3.80 3.62 3.42 3.09 2.75 2.56 2.42 2.15 1.92 1.79 1.90 1.69 1.61 1.67 1.84 1.87 1.75 1.96 2.14 2.11 2.15 2.08 2.07 1.75 1.58 1.38 1.17 1.10 1.03 1.13 1.20 1.20 1.33 1.44 1.49 1.85
4.78 5.32 5.48 5.47 5.05 4.50 4.01 3.60 3.52 3.33 3.06 2.80 2.55 2.30 1.95 1.75 1.60 1.77 1.64 1.53 1.58 1.71 1.76 1.88 2.03 2.10 1.91 1.86 1.75 1.62 1.35 1.06 0.98 0.92 0.77 0.80 0.88 0.85 0.91 1.07 1.31 1.20 1.62
4.37 5.04 5.14 5.32 4.79 4.12 3.54 3.08 2.97 2.78 2.49 2.43 2.32 2.13 1.98 1.78 1.69 1.80 1.63 1.57 1.47 1.53 1.54 1.64 1.76 1.78 1.53 1.70 2.02 1.66 1.16 0.87 0.80 0.73 0.66 0.67 0.68 0.73 0.92 1.19 1.35 1.38 1.49
3.76 4.46 4.51 4.16 3.89 3.41 3.00 2.79 2.62 2.54 2.25 2.09 1.96 1.93 1.75 1.61 1.57 1.55 1.55 1.40 1.37 1.44 1.42 1.49 1.61 1.58 1.41 1.62 1.95 2.03 1.58 1.22 0.94 0.66 0.63 0.62 0.69 0.82 0.90 1.01 1.33 1.52 1.51
3.43 3.53 3.15 2.94 2.96 2.87 2.68 2.55 2.43 2.38 2.19 1.91 1.70 1.67 1.58 1.41 1.36 1.31 1.27 1.28 1.34 1.22 1.27 1.37 1.52 1.65 1.51 1.42 1.67 1.96 1.73 1.40 1.13 0.85 0.75 0.85 0.97 1.06 1.10 1.26 1.37 1.51 1.58
2.62 2.54 2.47 2.41 2.38 2.55 2.55 2.31 2.10 1.78 1.64 1.55 1.45 1.47 1.50 1.34 1.27 1.21 1.17 1.26 1.29 1.24 1.35 1.17 1.25 1.49 1.61 1.42 1.41 1.46 1.47 1.56 1.56 1.21 0.89 0.82 0.95 1.04 1.07 1.09 1.21 1.44 1.57
1.97 2.02 1.98 2.20 2.28 2.27 2.24 2.18 2.14 1.87 1.67 1.58 1.66 1.82 1.72 1.46 1.23 1.10 1.11 1.20 1.26 1.25 1.29 1.27 1.34 1.30 1.36 1.32 1.31 1.31 1.39 1.52 1.47 1.41 1.18 0.97 0.95 0.85 0.90 1.03 1.22 1.38 1.43
1.31 1.41 1.51 1.74 1.94 1.98 1.93 1.93 1.96 1.92 1.82 1.59 1.51 1.57 1.51 1.37 1.20 1.07 1.09 1.22 1.23 1.20 1.21 1.22 1.23 1.19 1.24 1.27 1.27 1.30 1.39 1.38 1.31 1.43 1.32 1.12 1.05 0.88 0.96 1.06 1.22 1.33 1.35

GEFSSE_prec_meanprecacc_192.txt.gz
Total_Precipitation_Accumulation
0.27 0.26 0.31 0.27 0.25 0.26 0.29 0.32 0.34 0.30 0.27 0.23 0.18 0.16 0.16 0.16 0.16 0.19 0.24 0.28 0.33 0.42 0.47 0.53 0.52 0.52 0.51 0.51 0.48 0.45 0.46 0.52 0.57 0.58 0.63 0.75 0.89 1.01 1.24 1.39 1.43 1.01 0.88
0.09 0.16 0.26 0.26 0.25 0.26 0.26 0.26 0.30 0.30 0.27 0.24 0.24 0.21 0.19 0.18 0.19 0.21 0.24 0.29 0.35 0.42 0.42 0.41 0.38 0.41 0.41 0.40 0.40 0.40 0.47 0.59 0.77 0.86 0.91 0.91 0.99 1.07 1.20 1.20 1.39 0.98 0.85
0.07 0.10 0.18 0.25 0.24 0.24 0.23 0.24 0.27 0.28 0.28 0.26 0.25 0.24 0.21 0.22 0.24 0.26 0.28 0.31 0.37 0.41 0.39 0.36 0.35 0.35 0.34 0.31 0.33 0.38 0.46 0.67 1.01 1.23 1.36 1.07 0.77 1.01 1.15 1.05 0.93 0.79 0.78
0.06 0.07 0.10 0.19 0.23 0.22 0.22 0.24 0.27 0.28 0.27 0.27 0.25 0.25 0.25 0.28 0.31 0.34 0.34 0.33 0.35 0.35 0.32 0.31 0.29 0.30 0.30 0.29 0.33 0.41 0.54 0.71 1.01 1.43 1.59 0.97 0.55 0.74 0.89 0.79 0.74 0.63 0.66
0.10 0.09 0.12 0.18 0.20 0.22 0.22 0.25 0.26 0.27 0.26 0.27 0.27 0.29 0.31 0.32 0.34 0.35 0.35 0.37 0.36 0.33 0.30 0.31 0.27 0.24 0.26 0.28 0.33 0.42 0.59 0.76 1.10 1.38 1.13 0.95 0.88 0.76 0.71 0.71 0.66 0.56 0.53
0.15 0.13 0.18 0.21 0.21 0.22 0.23 0.24 0.24 0.25 0.25 0.26 0.26 0.29 0.33 0.32 0.35 0.39 0.38 0.37 0.36 0.33 0.29 0.32 0.29 0.26 0.26 0.28 0.36 0.46 0.64 0.91 1.12 0.82 0.74 0.83 0.84 0.75 0.72 0.84 0.73 0.60 0.52
0.25 0.23 0.25 0.28 0.27 0.25 0.25 0.25 0.27 0.25 0.24 0.26 0.28 0.30 0.33 0.33 0.37 0.39 0.36 0.34 0.32 0.30 0.26 0.30 0.35 0.33 0.37 0.41 0.46 0.55 0.73 1.01 0.88 0.60 0.74 0.99 0.92 0.75 0.77 0.94 0.90 0.72 0.56
0.39 0.31 0.30 0.37 0.36 0.30 0.29 0.31 0.31 0.28 0.28 0.29 0.29 0.29 0.31 0.34 0.38 0.36 0.35 0.37 0.35 0.32 0.31 0.32 0.34 0.40 0.47 0.47 0.52 0.60 0.74 0.84 0.57 0.57 0.72 0.87 0.76 0.78 0.84 1.01 1.05 0.89 0.72
0.46 0.43 0.39 0.36 0.34 0.34 0.37 0.40 0.38 0.32 0.33 0.33 0.30 0.29 0.29 0.33 0.38 0.37 0.38 0.42 0.40 0.37 0.37 0.38 0.33 0.34 0.38 0.43 0.48 0.55 0.70 0.82 0.70 0.72 0.73 0.73 0.60 0.69 0.86 1.00 0.97 0.92 0.82
0.63 0.59 0.58 0.52 0.46 0.40 0.39 0.43 0.46 0.42 0.41 0.37 0.35 0.35 0.40 0.44 0.45 0.44 0.40 0.46 0.44 0.43 0.48 0.48 0.42 0.40 0.46 0.53 0.60 0.69 0.80 0.68 0.78 0.75 0.87 0.86 0.71 0.81 1.03 1.12 1.01 0.93 0.90
0.92 0.80 0.71 0.61 0.55 0.50 0.41 0.41 0.47 0.49 0.48 0.46 0.51 0.51 0.61 0.79 0.80 0.81 0.72 0.76 0.74 0.72 0.75 0.76 0.72 0.66 0.64 0.60 0.80 1.03 0.84 0.68 0.90 0.94 0.98 0.94 0.90 1.08 1.34 1.34 1.24 1.11 1.03
1.18 0.89 0.82 0.64 0.58 0.50 0.42 0.53 0.66 0.66 0.70 0.73 0.85 0.87 1.09 1.30 1.30 1.04 1.16 1.27 1.24 1.26 1.16 1.15 1.33 1.13 0.89 0.83 1.34 1.66 0.93 0.75 0.82 0.84 0.85 0.90 1.19 1.47 1.67 1.53 1.37 1.30 1.19
1.20 1.19 1.12 0.89 0.79 0.74 0.79 0.73 0.82 0.96 1.11 1.07 1.06 1.19 1.48 1.39 1.23 1.14 1.22 1.54 1.73 1.78 1.70 1.71 1.83 1.54 1.47 1.68 1.86 1.70 1.19 1.10 1.06 1.03 1.02 1.26 1.66 1.94 2.00 1.75 1.57 1.48 1.39
1.51 1.76 1.82 1.48 1.40 1.27 1.11 1.03 0.98 0.99 1.16 1.30 1.49 1.54 1.68 1.76 1.69 1.54 1.58 1.78 1.95 2.10 2.43 2.33 2.24 2.13 2.08 1.97 1.90 1.66 1.47 1.45 1.35 1.48 1.72 1.62 1.77 2.07 2.21 2.03 1.80 1.69 1.62
2.14 2.36 2.52 2.09 1.98 1.84 1.80 1.68 1.44 1.47 1.56 1.64 1.82 1.97 2.03 2.18 2.20 2.15 2.06 2.02 1.88 1.97 2.32 2.56 2.43 2.48 2.43 2.26 1.99 1.81 1.70 1.64 1.55 1.64 1.81 2.01 2.02 2.03 2.19 2.29 2.12 1.90 1.79
2.67 2.78 2.91 2.78 2.77 2.60 2.36 2.37 2.35 2.00 1.97 1.95 1.98 1.93 2.13 2.34 2.61 2.72 2.61 2.47 2.15 2.05 2.14 2.44 2.52 2.70 2.62 2.46 1.89 1.77 1.76 1.78 1.79 1.76 1.87 2.36 2.39 2.01 1.96 2.13 2.26 2.24 2.08
3.57 3.45 3.48 3.45 3.69 3.52 3.08 2.79 2.53 2.35 2.30 2.38 2.35 2.22 2.33 2.53 2.76 2.76 2.57 2.25 2.04 2.05 2.18 2.13 2.16 2.45 2.25 2.12 1.99 2.06 2.05 1.97 1.83 1.80 1.87 2.23 2.25 1.90 1.72 1.74 1.97 2.14 2.24
4.41 4.30 4.11 3.71 4.03 4.00 3.65 3.37 3.07 2.81 2.83 2.76 2.48 2.36 2.30 2.43 2.37 2.44 2.11 1.78 1.87 2.05 2.13 2.17 2.09 2.19 2.20 2.28 2.29 2.24 2.16 2.02 1.66 1.54 1.46 1.49 1.65 1.41 1.51 1.72 1.73 1.75 2.04
4.84 5.03 5.00 4.88 4.54 4.22 4.02 3.86 3.68 3.48 3.15 2.80 2.61 2.47 2.19 1.97 1.84 1.97 1.76 1.68 1.73 1.90 1.94 1.81 2.04 2.22 2.19 2.23 2.14 2.13 1.81 1.64 1.43 1.21 1.14 1.06 1.15 1.22 1.23 1.35 1.45 1.52 1.89
4.81 5.34 5.52 5.51 5.10 4.55 4.06 3.66 3.59 3.40 3.15 2.87 2.62 2.39 2.01 1.80 1.65 1.83 1.71 1.61 1.66 1.79 1.84 1.96 2.14 2.22 2.00 1.95 1.80 1.67 1.40 1.11 1.02 0.96 0.81 0.83 0.90 0.87 0.94 1.11 1.35 1.23 1.65
4.40 5.08 5.18 5.36 4.84 4.18 3.60 3.16 3.06 2.88 2.58 2.50 2.39 2.23 2.07 1.86 1.74 1.87 1.71 1.68 1.58 1.63 1.64 1.73 1.85 1.88 1.63 1.78 2.10 1.73 1.21 0.92 0.84 0.78 0.71 0.72 0.71 0.77 0.96 1.23 1.39 1.44 1.54
3.79 4.49 4.54 4.21 3.95 3.48 3.06 2.85 2.68 2.61 2.32 2.16 2.03 2.01 1.84 1.69 1.65 1.63 1.65 1.50 1.47 1.54 1.54 1.58 1.71 1.68 1.50 1.69 2.04 2.12 1.65 1.28 0.99 0.70 0.67 0.67 0.73 0.87 0.93 1.03 1.36 1.60 1.60
3.44 3.55 3.17 2.97 3.01 2.92 2.72 2.59 2.48 2.43 2.24 1.97 1.78 1.76 1.66 1.47 1.43 1.38 1.37 1.39 1.46 1.31 1.36 1.48 1.62 1.75 1.61 1.51 1.76 2.09 1.84 1.49 1.20 0.90 0.80 0.88 1.01 1.11 1.14 1.28 1.40 1.57 1.66
2.63 2.55 2.49 2.44 2.43 2.59 2.58 2.34 2.15 1.85 1.71 1.64 1.53 1.57 1.59 1.41 1.33 1.27 1.25 1.36 1.40 1.33 1.44 1.26 1.33 1.57 1.72 1.54 1.52 1.57 1.57 1.66 1.66 1.29 0.94 0.86 0.98 1.09 1.15 1.15 1.26 1.50 1.66
1.99 2.04 2.00 2.23 2.32 2.32 2.29 2.23 2.21 1.94 1.74 1.65 1.74 1.93 1.82 1.55 1.29 1.15 1.18 1.29 1.36 1.35 1.39 1.38 1.43 1.38 1.44 1.43 1.44 1.44 1.50 1.65 1.58 1.50 1.26 1.03 1.00 0.90 0.99 1.13 1.30 1.46 1.51
1.32 1.42 1.52 1.76 1.97 2.03 1.98 1.98 2.01 1.97 1.87 1.65 1.60 1.64 1.57 1.43 1.26 1.13 1.14 1.30 1.32 1.31 1.31 1.33 1.33 1.28 1.33 1.38 1.40 1.44 1.53 1.50 1.43 1.56 1.44 1.23 1.14 0.95 1.01 1.13 1.30 1.41 1.42

GEFSSE_prec_meanprecacc_198.txt.gz
Total_Precipitation_Accumulation
0.31 0.28 0.34 0.35 0.34 0.34 0.37 0.38 0.38 0.35 0.30 0.27 0.23 0.21 0.21 0.21 0.26 0.34 0.42 0.47 0.50 0.60 0.65 0.69 0.65 0.63 0.61 0.61 0.56 0.51 0.51 0.58 0.62 0.64 0.67 0.79 0.92 1.04 1.26 1.44 1.50 1.06 0.91
0.11 0.16 0.29 0.31 0.31 0.33 0.32 0.30 0.34 0.33 0.30 0.28 0.28 0.26 0.24 0.24 0.27 0.30 0.34 0.40 0.47 0.56 0.56 0.53 0.47 0.48 0.48 0.47 0.47 0.45 0.51 0.64 0.83 0.93 0.98 0.97 1.02 1.10 1.26 1.30 1.48 1.03 0.88
0.08 0.11 0.19 0.28 0.28 0.28 0.28 0.29 0.31 0.31 0.31 0.30 0.30 0.29 0.27 0.28 0.30 0.32 0.35 0.39 0.45 0.49 0.47 0.43 0.41 0.40 0.38 0.35 0.37 0.41 0.50 0.73 1.10 1.34 1.47 1.13 0.80 1.04 1.21 1.10 0.97 0.82 0.81
0.08 0.08 0.11 0.21 0.25 0.26 0.27 0.30 0.31 0.32 0.32 0.32 0.29 0.29 0.29 0.32 0.35 0.40 0.41 0.40 0.43 0.41 0.38 0.37 0.34 0.34 0.33 0.31 0.35 0.44 0.57 0.78 1.12 1.58 1.69 1.03 0.60 0.78 0.94 0.82 0.77 0.66 0.69
0.11 0.10 0.13 0.18 0.22 0.24 0.26 0.32 0.32 0.32 0.32 0.32 0.30 0.32 0.34 0.35 0.37 0.40 0.43 0.44 0.42 0.38 0.36 0.36 0.31 0.28 0.30 0.32 0.36 0.45 0.63 0.83 1.21 1.48 1.20 1.03 0.94 0.82 0.75 0.73 0.68 0.59 0.56
0.18 0.14 0.18 0.22 0.22 0.24 0.25 0.30 0.30 0.28 0.29 0.30 0.29 0.31 0.35 0.34 0.37 0.42 0.43 0.42 0.41 0.38 0.34 0.36 0.32 0.28 0.28 0.31 0.38 0.49 0.69 0.98 1.21 0.87 0.81 0.88 0.88 0.84 0.77 0.87 0.75 0.63 0.54
0.29 0.23 0.26 0.29 0.28 0.26 0.27 0.29 0.31 0.28 0.29 0.29 0.30 0.32 0.35 0.35 0.39 0.42 0.39 0.37 0.36 0.34 0.30 0.34 0.38 0.36 0.39 0.42 0.48 0.57 0.78 1.08 0.95 0.66 0.82 1.04 0.96 0.82 0.80 0.97 0.93 0.74 0.58
0.40 0.31 0.30 0.37 0.36 0.31 0.31 0.34 0.34 0.31 0.32 0.31 0.30 0.31 0.33 0.35 0.40 0.38 0.37 0.40 0.36 0.34 0.34 0.36 0.37 0.43 0.49 0.49 0.52 0.61 0.76 0.88 0.61 0.62 0.76 0.90 0.80 0.82 0.86 1.03 1.07 0.90 0.73
0.46 0.44 0.40 0.37 0.35 0.34 0.38 0.41 0.40 0.34 0.36 0.34 0.31 0.30 0.30 0.34 0.39 0.38 0.40 0.45 0.42 0.39 0.39 0.41 0.34 0.36 0.39 0.44 0.48 0.55 0.72 0.85 0.73 0.74 0.74 0.76 0.64 0.71 0.88 1.02 0.98 0.94 0.85
0.64 0.59 0.59 0.54 0.48 0.41 0.39 0.44 0.46 0.43 0.42 0.39 0.36 0.36 0.41 0.47 0.47 0.45 0.41 0.47 0.46 0.44 0.49 0.51 0.44 0.41 0.47 0.53 0.60 0.69 0.81 0.69 0.80 0.77 0.89 0.88 0.73 0.83 1.05 1.14 1.04 0.96 0.92
0.93 0.81 0.72 0.62 0.55 0.51 0.42 0.41 0.48 0.50 0.50 0.50 0.53 0.53 0.69 0.90 0.86 0.87 0.74 0.77 0.76 0.73 0.76 0.78 0.74 0.67 0.65 0.60 0.80 1.04 0.86 0.69 0.92 0.96 1.00 0.96 0.91 1.10 1.35 1.35 1.26 1.14 1.05
1.19 0.89 0.82 0.65 0.60 0.51 0.43 0.55 0.72 0.70 0.74 0.80 0.92 0.95 1.18 1.39 1.40 1.10 1.19 1.28 1.25 1.28 1.18 1.18 1.36 1.17 0.92 0.87 1.35 1.68 0.95 0.76 0.84 0.86 0.87 0.92 1.22 1.49 1.69 1.54 1.38 1.31 1.21
1.21 1.19 1.12 0.90 0.80 0.76 0.82 0.75 0.88 1.02 1.18 1.14 1.11 1.25 1.54 1.44 1.29 1.19 1.28 1.58 1.77 1.83 1.74 1.74 1.87 1.60 1.54 1.73 1.88 1.72 1.21 1.12 1.06 1.04 1.03 1.27 1.68 1.97 2.01 1.76 1.58 1.49 1.39
1.51 1.76 1.82 1.48 1.41 1.29 1.13 1.06 1.01 1.03 1.23 1.37 1.57 1.60 1.74 1.82 1.73 1.59 1.65 1.86 2.02 2.18 2.53 2.40 2.30 2.16 2.11 2.00 1.95 1.72 1.51 1.47 1.36 1.50 1.73 1.63 1.78 2.08 2.22 2.04 1.81 1.69 1.63
2.14 2.36 2.53 2.09 1.98 1.85 1.83 1.73 1.47 1.51 1.62 1.70 1.89 2.02 2.08 2.23 2.24 2.20 2.12 2.08 1.94 2.03 2.38 2.62 2.47 2.52 2.47 2.29 2.04 1.86 1.73 1.65 1.58 1.69 1.84 2.03 2.03 2.03 2.19 2.30 2.13 1.92 1.80
2.67 2.79 2.91 2.79 2.78 2.62 2.38 2.40 2.38 2.02 2.00 2.00 2.03 1.97 2.17 2.39 2.65 2.76 2.65 2.50 2.19 2.11 2.19 2.47 2.55 2.74 2.69 2.49 1.91 1.79 1.78 1.80 1.82 1.78 1.89 2.38 2.40 2.01 1.96 2.14 2.27 2.25 2.09
3.58 3.46 3.49 3.47 3.70 3.54 3.11 2.81 2.55 2.36 2.32 2.41 2.38 2.25 2.37 2.59 2.82 2.81 2.62 2.29 2.08 2.09 2.22 2.17 2.19 2.47 2.29 2.15 2.01 2.08 2.07 2.00 1.86 1.84 1.90 2.26 2.27 1.91 1.72 1.75 1.98 2.14 2.25
4.42 4.32 4.12 3.72 4.04 4.02 3.68 3.41 3.09 2.83 2.84 2.77 2.50 2.39 2.34 2.48 2.42 2.50 2.18 1.85 1.94 2.10 2.18 2.24 2.13 2.23 2.24 2.31 2.32 2.27 2.18 2.05 1.70 1.58 1.49 1.53 1.69 1.43 1.53 1.73 1.74 1.77 2.05
4.86 5.05 5.02 4.90 4.56 4.26 4.08 3.91 3.73 3.52 3.19 2.84 2.65 2.52 2.23 2.01 1.88 2.03 1.83 1.77 1.82 1.97 2.00 1.86 2.10 2.28 2.26 2.29 2.17 2.17 1.84 1.69 1.48 1.25 1.17 1.09 1.18 1.26 1.27 1.38 1.47 1.53 1.91
4.83 5.36 5.53 5.54 5.14 4.60 4.14 3.74 3.67 3.45 3.19 2.93 2.68 2.46 2.08 1.86 1.70 1.88 1.77 1.69 1.74 1.87 1.93 2.04 2.24 2.33 2.09 2.02 1.86 1.75 1.47 1.16 1.07 1.00 0.85 0.86 0.94 0.91 0.98 1.15 1.41 1.29 1.70
4.41 5.09 5.20 5.42 4.90 4.25 3.67 3.24 3.14 2.95 2.64 2.55 2.45 2.27 2.12 1.91 1.78 1.92 1.77 1.78 1.67 1.71 1.71 1.80 1.94 2.00 1.74 1.87 2.23 1.86 1.30 1.00 0.94 0.83 0.75 0.76 0.77 0.83 1.01 1.29 1.47 1.55 1.67
3.79 4.51 4.57 4.25 4.00 3.53 3.12 2.92 2.76 2.68 2.38 2.21 2.08 2.06 1.86 1.72 1.68 1.67 1.72 1.60 1.56 1.64 1.63 1.67 1.83 1.79 1.60 1.80 2.19 2.29 1.80 1.41 1.09 0.76 0.72 0.73 0.80 0.94 1.00 1.09 1.45 1.72 1.74
3.45 3.55 3.19 3.01 3.06 2.97 2.78 2.66 2.54 2.50 2.31 2.05 1.86 1.84 1.70 1.49 1.47 1.43 1.43 1.47 1.55 1.40 1.49 1.60 1.75 1.87 1.73 1.65 1.90 2.27 2.05 1.68 1.35 1.01 0.87 0.95 1.08 1.21 1.23 1.37 1.48 1.66 1.80
2.63 2.56 2.51 2.47 2.48 2.64 2.64 2.40 2.21 1.92 1.79 1.72 1.60 1.64 1.65 1.44 1.35 1.30 1.28 1.41 1.47 1.41 1.58 1.36 1.46 1.71 1.87 1.69 1.68 1.73 1.73 1.86 1.86 1.47 1.08 0.97 1.10 1.23 1.29 1.29 1.38 1.61 1.76
1.99 2.04 2.01 2.26 2.36 2.36 2.33 2.28 2.25 1.99 1.80 1.72 1.82 2.01 1.90 1.61 1.33 1.17 1.22 1.35 1.43 1.43 1.50 1.48 1.56 1.50 1.58 1.58 1.61 1.60 1.69 1.86 1.78 1.70 1.46 1.21 1.16 1.05 1.12 1.22 1.39 1.57 1.62
1.32 1.43 1.53 1.78 2.00 2.06 2.02 2.02 2.05 2.04 1.97 1.76 1.70 1.74 1.65 1.51 1.33 1.17 1.20 1.38 1.41 1.42 1.44 1.46 1.46 1.41 1.48 1.55 1.58 1.60 1.72 1.69 1.62 1.75 1.62 1.41 1.33 1.10 1.13 1.24 1.39 1.50 1.52

GEFSSE_prec_meanprecacc_204.txt.gz
Total_Precipitation_Accumulation
0.35 0.31 0.39 0.38 0.37 0.37 0.39 0.40 0.41 0.38 0.35 0.35 0.35 0.38 0.40 0.39 0.45 0.55 0.60 0.62 0.64 0.73 0.76 0.79 0.80 0.82 0.73 0.70 0.63 0.58 0.59 0.66 0.69 0.71 0.73 0.83 0.95 1.07 1.30 1.46 1.51 1.07 0.94
0.13 0.18 0.32 0.32 0.32 0.35 0.34 0.32 0.36 0.36 0.33 0.33 0.35 0.34 0.32 0.34 0.40 0.46 0.51 0.57 0.63 0.68 0.65 0.65 0.63 0.60 0.56 0.54 0.53 0.52 0.58 0.72 0.92 1.01 1.04 1.01 1.05 1.13 1.30 1.31 1.49 1.04 0.89
0.09 0.11 0.20 0.29 0.30 0.30 0.30 0.30 0.33 0.33 0.33 0.33 0.34 0.34 0.32 0.36 0.42 0.46 0.51 0.53 0.57 0.59 0.54 0.51 0.49 0.47 0.44 0.39 0.42 0.47 0.57 0.83 1.18 1.40 1.51 1.14 0.82 1.09 1.26 1.13 0.99 0.84 0.82
0.09 0.08 0.12 0.21 0.26 0.26 0.28 0.31 0.32 0.33 0.33 0.33 0.32 0.32 0.32 0.36 0.43 0.50 0.52 0.51 0.51 0.48 0.43 0.41 0.38 0.38 0.36 0.35 0.40 0.50 0.67 0.89 1.21 1.63 1.71 1.05 0.62 0.81 0.97 0.84 0.79 0.67 0.70
0.12 0.10 0.13 0.19 0.22 0.24 0.26 0.33 0.33 0.33 0.33 0.34 0.32 0.34 0.37 0.38 0.42 0.47 0.50 0.51 0.48 0.43 0.39 0.38 0.33 0.30 0.32 0.34 0.39 0.52 0.72 0.95 1.31 1.52 1.22 1.05 0.95 0.85 0.77 0.75 0.70 0.61 0.56
0.18 0.14 0.18 0.22 0.22 0.24 0.25 0.30 0.31 0.29 0.30 0.31 0.30 0.32 0.37 0.36 0.39 0.46 0.47 0.46 0.45 0.41 0.36 0.37 0.33 0.30 0.30 0.33 0.42 0.53 0.76 1.08 1.27 0.90 0.82 0.89 0.89 0.87 0.79 0.89 0.77 0.64 0.55
0.29 0.24 0.26 0.29 0.28 0.26 0.27 0.29 0.32 0.29 0.30 0.30 0.31 0.32 0.36 0.36 0.40 0.43 0.41 0.39 0.37 0.35 0.31 0.35 0.39 0.38 0.40 0.44 0.50 0.61 0.83 1.16 1.00 0.69 0.83 1.05 0.97 0.85 0.82 0.98 0.95 0.75 0.59
0.40 0.31 0.31 0.38 0.36 0.31 0.31 0.34 0.35 0.31 0.32 0.32 0.32 0.31 0.33 0.36 0.40 0.38 0.38 0.41 0.37 0.35 0.34 0.37 0.38 0.44 0.50 0.50 0.55 0.64 0.81 0.96 0.67 0.67 0.78 0.90 0.82 0.84 0.88 1.04 1.08 0.91 0.74
0.47 0.44 0.40 0.37 0.35 0.34 0.38 0.42 0.40 0.35 0.36 0.35 0.33 0.31 0.31 0.35 0.40 0.39 0.40 0.45 0.42 0.39 0.39 0.42 0.35 0.36 0.40 0.45 0.50 0.58 0.77 0.91 0.78 0.77 0.75 0.76 0.65 0.73 0.89 1.03 0.99 0.95 0.85
0.65 0.60 0.59 0.54 0.48 0.41 0.40 0.45 0.47 0.44 0.43 0.40 0.38 0.38 0.43 0.49 0.49 0.47 0.43 0.48 0.47 0.45 0.50 0.51 0.44 0.42 0.48 0.55 0.63 0.73 0.87 0.74 0.84 0.79 0.90 0.89 0.73 0.85 1.06 1.15 1.05 0.97 0.93
0.94 0.82 0.73 0.63 0.57 0.53 0.43 0.43 0.50 0.52 0.52 0.54 0.56 0.57 0.72 0.91 0.88 0.90 0.76 0.79 0.78 0.74 0.77 0.79 0.75 0.68 0.66 0.62 0.83 1.08 0.89 0.72 0.95 1.00 1.02 0.97 0.92 1.11 1.37 1.36 1.26 1.15 1.06
1.20 0.91 0.84 0.66 0.61 0.53 0.45 0.56 0.74 0.72 0.77 0.83 0.94 0.98 1.22 1.42 1.42 1.13 1.24 1.33 1.30 1.31 1.20 1.20 1.38 1.18 0.94 0.89 1.38 1.71 0.99 0.80 0.87 0.89 0.89 0.94 1.23 1.51 1.71 1.55 1.39 1.32 1.21
1.21 1.20 1.13 0.90 0.81 0.77 0.84 0.78 0.91 1.05 1.22 1.18 1.14 1.28 1.58 1.46 1.32 1.22 1.31 1.60 1.79 1.86 1.77 1.77 1.90 1.62 1.56 1.76 1.91 1.75 1.25 1.15 1.08 1.06 1.05 1.29 1.69 1.98 2.02 1.77 1.59 1.50 1.41
1.52 1.76 1.82 1.49 1.42 1.30 1.14 1.08 1.04 1.07 1.27 1.41 1.60 1.62 1.76 1.84 1.75 1.61 1.67 1.88 2.04 2.19 2.55 2.44 2.33 2.20 2.15 2.03 1.99 1.77 1.55 1.50 1.38 1.52 1.75 1.64 1.80 2.10 2.24 2.05 1.82 1.71 1.65
2.14 2.37 2.54 2.10 1.99 1.86 1.84 1.75 1.50 1.55 1.65 1.73 1.91 2.05 2.11 2.25 2.26 2.22 2.16 2.11 1.97 2.06 2.41 2.66 2.53 2.56 2.50 2.35 2.11 1.93 1.79 1.69 1.61 1.72 1.88 2.04 2.04 2.05 2.21 2.31 2.14 1.93 1.81
2.68 2.79 2.92 2.80 2.80 2.62 2.39 2.41 2.39 2.05 2.03 2.02 2.06 2.00 2.19 2.40 2.66 2.78 2.68 2.54 2.23 2.15 2.22 2.50 2.59 2.78 2.73 2.55 1.97 1.84 1.82 1.84 1.86 1.81 1.94 2.42 2.42 2.03 1.98 2.16 2.29 2.26 2.10
3.60 3.47 3.50 3.49 3.72 3.55 3.12 2.82 2.56 2.37 2.34 2.43 2.40 2.27 2.39 2.61 2.84 2.82 2.64 2.32 2.11 2.13 2.27 2.23 2.24 2.53 2.36 2.22 2.06 2.13 2.12 2.03 1.89 1.87 1.93 2.30 2.30 1.94 1.74 1.77 2.01 2.17 2.27
4.43 4.33 4.13 3.74 4.07 4.04 3.69 3.43 3.11 2.85 2.87 2.81 2.53 2.41 2.37 2.51 2.44 2.51 2.20 1.88 1.97 2.14 2.22 2.29 2.18 2.28 2.30 2.38 2.39 2.36 2.26 2.09 1.73 1.61 1.52 1.56 1.73 1.47 1.56 1.75 1.76 1.79 2.09
4.87 5.06 5.02 4.91 4.59 4.28 4.11 3.95 3.76 3.55 3.22 2.87 2.68 2.54 2.26 2.04 1.90 2.04 1.85 1.79 1.84 2.01 2.04 1.90 2.15 2.34 2.32 2.35 2.24 2.25 1.92 1.76 1.53 1.29 1.22 1.15 1.23 1.31 1.33 1.43 1.50 1.57 1.96
4.83 5.37 5.54 5.56 5.16 4.62 4.17 3.78 3.71 3.50 3.22 2.95 2.70 2.48 2.10 1.88 1.71 1.89 1.79 1.71 1.76 1.89 1.96 2.08 2.29 2.38 2.14 2.07 1.94 1.83 1.55 1.22 1.16 1.09 0.93 0.97 1.04 1.00 1.07 1.23 1.46 1.34 1.77
4.41 5.09 5.21 5.43 4.91 4.26 3.69 3.27 3.17 2.98 2.67 2.58 2.47 2.29 2.14 1.92 1.79 1.93 1.79 1.81 1.69 1.73 1.74 1.84 1.99 2.06 1.78 1.93 2.32 1.94 1.38 1.08 1.04 0.91 0.85 0.89 0.91 0.96 1.11 1.38 1.55 1.63 1.74
3.80 4.51 4.57 4.26 4.01 3.54 3.13 2.94 2.77 2.70 2.40 2.23 2.11 2.09 1.90 1.75 1.71 1.69 1.75 1.64 1.59 1.66 1.67 1.71 1.87 1.85 1.64 1.84 2.25 2.37 1.86 1.49 1.20 0.86 0.83 0.84 0.96 1.14 1.18 1.23 1.59 1.88 1.91
3.46 3.56 3.19 3.03 3.08 2.98 2.80 2.68 2.57 2.53 2.33 2.08 1.89 1.87 1.73 1.53 1.50 1.46 1.46 1.51 1.58 1.43 1.53 1.64 1.81 1.93 1.79 1.70 1.96 2.35 2.13 1.77 1.45 1.13 1.01 1.09 1.20 1.33 1.36 1.53 1.66 1.83 1.96
2.64 2.57 2.52 2.48 2.50 2.67 2.67 2.43 2.24 1.94 1.81 1.74 1.62 1.67 1.68 1.47 1.38 1.33 1.32 1.45 1.50 1.45 1.61 1.40 1.53 1.79 1.93 1.75 1.75 1.80 1.82 1.97 1.95 1.59 1.20 1.10 1.22 1.35 1.42 1.44 1.52 1.77 1.93
2.00 2.06 2.04 2.28 2.37 2.39 2.36 2.30 2.28 2.02 1.82 1.75 1.86 2.05 1.95 1.64 1.37 1.21 1.27 1.39 1.45 1.47 1.55 1.53 1.61 1.58 1.64 1.65 1.68 1.67 1.76 1.96 1.86 1.80 1.56 1.32 1.26 1.16 1.25 1.37 1.52 1.72 1.79
1.34 1.46 1.57 1.82 2.02 2.08 2.04 2.04 2.08 2.07 2.00 1.80 1.75 1.79 1.70 1.54 1.37 1.22 1.24 1.41 1.44 1.46 1.48 1.51 1.50 1.47 1.53 1.60 1.64 1.67 1.78 1.76 1.70 1.84 1.72 1.49 1.39 1.18 1.22 1.32 1.47 1.58 1.60

GEFSSE_prec_meanprecacc_210.txt.gz
Total_Precipitation_Accumulation
0.42 0.38 0.47 0.42 0.39 0.39 0.42 0.43 0.46 0.47 0.48 0.55 0.57 0.58 0.60 0.59 0.65 0.72 0.75 0.83 0.88 0.92 0.94 0.98 0.97 0.98 0.87 0.83 0.73 0.67 0.65 0.73 0.76 0.78 0.79 0.88 1.01 1.14 1.36 1.50 1.53 1.11 0.98
0.17 0.23 0.37 0.35 0.34 0.37 0.36 0.34 0.39 0.41 0.41 0.49 0.58 0.61 0.60 0.58 0.61 0.63 0.69 0.78 0.83 0.85 0.82 0.80 0.80 0.74 0.66 0.63 0.60 0.58 0.64 0.79 0.99 1.09 1.11 1.07 1.11 1.19 1.34 1.33 1.51 1.07 0.91
0.11 0.15 0.23 0.31 0.31 0.32 0.32 0.33 0.36 0.37 0.38 0.46 0.55 0.59 0.57 0.58 0.63 0.64 0.65 0.69 0.72 0.72 0.67 0.66 0.67 0.60 0.53 0.46 0.47 0.51 0.62 0.89 1.23 1.46 1.56 1.19 0.87 1.14 1.29 1.15 1.02 0.86 0.84
0.10 0.10 0.14 0.23 0.27 0.27 0.29 0.33 0.35 0.37 0.37 0.42 0.46 0.51 0.54 0.58 0.61 0.64 0.63 0.62 0.61 0.57 0.52 0.53 0.49 0.47 0.44 0.41 0.45 0.55 0.73 0.94 1.25 1.66 1.73 1.08 0.66 0.84 1.00 0.86 0.81 0.70 0.71
0.12 0.11 0.15 0.20 0.24 0.26 0.27 0.34 0.35 0.35 0.36 0.39 0.38 0.43 0.49 0.53 0.54 0.57 0.60 0.61 0.56 0.50 0.46 0.45 0.39 0.36 0.40 0.41 0.47 0.60 0.79 0.99 1.34 1.55 1.23 1.07 0.97 0.88 0.80 0.77 0.72 0.63 0.58
0.19 0.15 0.20 0.23 0.23 0.25 0.26 0.31 0.32 0.31 0.32 0.34 0.33 0.36 0.42 0.44 0.47 0.53 0.54 0.54 0.51 0.46 0.39 0.40 0.36 0.35 0.37 0.39 0.50 0.64 0.83 1.14 1.30 0.91 0.83 0.90 0.90 0.90 0.82 0.91 0.79 0.66 0.57
0.29 0.24 0.28 0.30 0.28 0.26 0.28 0.31 0.32 0.30 0.32 0.32 0.34 0.35 0.38 0.39 0.44 0.48 0.46 0.44 0.41 0.38 0.33 0.37 0.42 0.42 0.45 0.49 0.57 0.69 0.90 1.22 1.03 0.69 0.84 1.06 0.98 0.88 0.85 1.01 0.97 0.76 0.61
0.41 0.31 0.32 0.39 0.37 0.31 0.32 0.36 0.36 0.32 0.34 0.35 0.35 0.34 0.36 0.38 0.42 0.40 0.41 0.43 0.39 0.36 0.36 0.39 0.40 0.47 0.53 0.53 0.58 0.69 0.88 1.02 0.70 0.68 0.79 0.91 0.83 0.87 0.90 1.06 1.09 0.92 0.75
0.47 0.44 0.40 0.38 0.36 0.35 0.40 0.43 0.42 0.37 0.38 0.38 0.36 0.33 0.34 0.38 0.42 0.40 0.42 0.47 0.44 0.40 0.41 0.43 0.37 0.39 0.43 0.48 0.53 0.62 0.83 0.96 0.79 0.78 0.75 0.77 0.66 0.75 0.91 1.04 1.00 0.96 0.87
0.65 0.60 0.59 0.55 0.48 0.42 0.41 0.46 0.49 0.46 0.45 0.42 0.41 0.40 0.45 0.52 0.52 0.50 0.46 0.50 0.48 0.46 0.51 0.53 0.46 0.44 0.51 0.59 0.67 0.77 0.92 0.77 0.85 0.80 0.90 0.90 0.76 0.87 1.08 1.16 1.05 0.98 0.95
0.95 0.83 0.74 0.64 0.57 0.54 0.44 0.44 0.51 0.54 0.53 0.55 0.58 0.59 0.74 0.92 0.89 0.92 0.79 0.83 0.80 0.76 0.78 0.81 0.77 0.70 0.68 0.65 0.87 1.12 0.92 0.74 0.96 1.00 1.02 0.98 0.95 1.14 1.39 1.37 1.27 1.16 1.07
1.21 0.91 0.84 0.67 0.62 0.54 0.46 0.57 0.74 0.73 0.77 0.84 0.95 0.99 1.22 1.42 1.43 1.14 1.26 1.36 1.33 1.33 1.22 1.22 1.41 1.21 0.95 0.90 1.40 1.74 1.01 0.81 0.88 0.90 0.90 0.95 1.25 1.53 1.74 1.57 1.40 1.33 1.22
1.22 1.21 1.13 0.91 0.82 0.78 0.85 0.79 0.92 1.06 1.22 1.19 1.15 1.29 1.59 1.48 1.33 1.23 1.32 1.62 1.81 1.87 1.78 1.78 1.92 1.63 1.56 1.76 1.91 1.76 1.26 1.15 1.09 1.07 1.06 1.31 1.72 2.01 2.05 1.79 1.61 1.52 1.42
1.53 1.77 1.84 1.51 1.43 1.31 1.16 1.08 1.05 1.08 1.28 1.42 1.61 1.64 1.78 1.85 1.76 1.62 1.69 1.90 2.04 2.20 2.57 2.45 2.35 2.22 2.16 2.04 2.00 1.78 1.56 1.51 1.39 1.53 1.76 1.66 1.83 2.12 2.25 2.06 1.84 1.73 1.66
2.16 2.38 2.56 2.13 2.02 1.89 1.85 1.76 1.51 1.56 1.67 1.75 1.93 2.07 2.12 2.26 2.27 2.22 2.16 2.12 1.97 2.07 2.42 2.68 2.54 2.57 2.51 2.36 2.12 1.94 1.81 1.72 1.63 1.74 1.89 2.06 2.07 2.08 2.23 2.33 2.15 1.95 1.83
2.69 2.81 2.95 2.83 2.83 2.67 2.42 2.43 2.41 2.06 2.04 2.04 2.08 2.02 2.21 2.42 2.67 2.79 2.69 2.54 2.24 2.16 2.23 2.51 2.60 2.79 2.74 2.56 1.99 1.85 1.84 1.87 1.88 1.83 1.97 2.45 2.46 2.06 2.01 2.20 2.32 2.28 2.13
3.61 3.48 3.52 3.52 3.75 3.59 3.16 2.86 2.59 2.40 2.37 2.45 2.42 2.30 2.42 2.64 2.85 2.83 2.64 2.33 2.12 2.14 2.28 2.24 2.27 2.55 2.38 2.25 2.09 2.15 2.13 2.06 1.92 1.89 1.96 2.34 2.34 1.97 1.78 1.82 2.07 2.22 2.33
4.45 4.34 4.15 3.76 4.09 4.07 3.73 3.47 3.16 2.91 2.93 2.85 2.56 2.45 2.41 2.55 2.47 2.53 2.21 1.90 1.99 2.15 2.24 2.32 2.21 2.31 2.34 2.42 2.43 2.39 2.29 2.12 1.76 1.63 1.55 1.59 1.76 1.51 1.60 1.80 1.84 1.87 2.16
4.89 5.08 5.05 4.93 4.61 4.31 4.14 3.98 3.80 3.60 3.26 2.91 2.72 2.57 2.29 2.08 1.93 2.06 1.87 1.81 1.86 2.03 2.06 1.92 2.18 2.38 2.37 2.40 2.29 2.29 1.96 1.80 1.56 1.31 1.26 1.19 1.26 1.35 1.38 1.49 1.58 1.65 2.04
4.86 5.40 5.55 5.57 5.18 4.65 4.20 3.81 3.74 3.53 3.25 2.98 2.72 2.50 2.12 1.90 1.73 1.91 1.80 1.72 1.77 1.91 1.99 2.11 2.35 2.44 2.19 2.14 2.02 1.88 1.61 1.28 1.21 1.14 0.99 1.03 1.08 1.04 1.15 1.33 1.55 1.43 1.88
4.43 5.11 5.22 5.44 4.93 4.27 3.71 3.30 3.20 3.00 2.70 2.60 2.49 2.32 2.16 1.94 1.81 1.95 1.82 1.83 1.71 1.76 1.77 1.88 2.05 2.13 1.83 1.98 2.39 2.01 1.43 1.14 1.10 0.95 0.89 0.95 0.97 1.02 1.17 1.47 1.64 1.70 1.82
3.82 4.53 4.59 4.28 4.02 3.56 3.16 2.96 2.79 2.73 2.42 2.24 2.13 2.11 1.92 1.77 1.73 1.72 1.80 1.68 1.62 1.68 1.68 1.75 1.93 1.92 1.70 1.91 2.32 2.42 1.89 1.52 1.24 0.90 0.89 0.90 1.03 1.21 1.25 1.31 1.67 1.95 1.98
3.49 3.58 3.21 3.04 3.09 3.01 2.84 2.70 2.58 2.55 2.36 2.11 1.92 1.89 1.75 1.55 1.52 1.49 1.49 1.53 1.61 1.45 1.55 1.69 1.86 1.98 1.85 1.76 2.01 2.39 2.16 1.80 1.50 1.19 1.09 1.17 1.28 1.39 1.43 1.60 1.72 1.90 2.03
2.66 2.58 2.53 2.50 2.52 2.69 2.70 2.45 2.26 1.96 1.84 1.76 1.65 1.70 1.71 1.49 1.41 1.38 1.35 1.48 1.54 1.49 1.65 1.45 1.57 1.84 1.99 1.80 1.79 1.84 1.86 2.00 1.99 1.64 1.28 1.18 1.30 1.43 1.51 1.53 1.60 1.85 2.01
2.01 2.08 2.06 2.31 2.39 2.42 2.39 2.32 2.30 2.03 1.84 1.78 1.89 2.07 1.97 1.67 1.40 1.25 1.30 1.43 1.50 1.52 1.58 1.56 1.64 1.62 1.68 1.70 1.73 1.72 1.80 2.00 1.90 1.84 1.63 1.41 1.36 1.25 1.33 1.45 1.60 1.80 1.87
1.35 1.48 1.59 1.84 2.05 2.11 2.07 2.07 2.10 2.10 2.03 1.84 1.78 1.81 1.71 1.56 1.40 1.25 1.26 1.44 1.48 1.51 1.53 1.56 1.55 1.50 1.56 1.64 1.68 1.72 1.82 1.81 1.76 1.89 1.76 1.56 1.48 1.25 1.27 1.36 1.52 1.65 1.67

GEFSSE_prec_meanprecacc_216.txt.gz
Total_Precipitation_Accumulation
0.48 0.45 0.59 0.52 0.48 0.47 0.50 0.53 0.58 0.59 0.59 0.68 0.78 0.89 0.87 0.80 0.84 0.89 0.94 1.09 1.21 1.20 1.17 1.18 1.13 1.10 0.97 0.95 0.88 0.79 0.72 0.80 0.84 0.84 0.83 0.93 1.06 1.21 1.46 1.59 1.60 1.15 1.02
0.21 0.29 0.46 0.43 0.41 0.44 0.43 0.43 0.52 0.57 0.56 0.64 0.78 0.89 0.86 0.77 0.75 0.79 0.90 1.02 1.09 1.04 0.98 0.95 0.94 0.87 0.78 0.75 0.71 0.66 0.69 0.85 1.06 1.15 1.16 1.11 1.16 1.25 1.39 1.37 1.55 1.11 0.95
0.14 0.19 0.26 0.36 0.37 0.38 0.40 0.47 0.52 0.54 0.57 0.65 0.74 0.80 0.77 0.76 0.80 0.85 0.90 0.99 0.96 0.90 0.81 0.78 0.79 0.72 0.64 0.56 0.56 0.60 0.69 0.95 1.28 1.50 1.62 1.25 0.91 1.16 1.31 1.17 1.04 0.89 0.87
0.12 0.12 0.16 0.26 0.32 0.33 0.38 0.49 0.55 0.58 0.60 0.63 0.64 0.68 0.71 0.77 0.81 0.86 0.92 0.90 0.83 0.75 0.67 0.67 0.62 0.59 0.54 0.49 0.52 0.61 0.78 0.99 1.29 1.70 1.77 1.12 0.69 0.86 1.01 0.88 0.83 0.71 0.73
0.13 0.13 0.18 0.24 0.27 0.30 0.35 0.47 0.52 0.54 0.55 0.56 0.52 0.57 0.66 0.71 0.71 0.78 0.86 0.84 0.76 0.68 0.63 0.60 0.52 0.48 0.48 0.47 0.53 0.64 0.84 1.03 1.38 1.57 1.24 1.09 1.00 0.90 0.82 0.79 0.74 0.64 0.59
0.19 0.17 0.23 0.27 0.26 0.29 0.32 0.39 0.41 0.42 0.46 0.47 0.45 0.49 0.58 0.60 0.63 0.71 0.74 0.73 0.68 0.63 0.54 0.54 0.49 0.47 0.45 0.45 0.55 0.69 0.87 1.16 1.31 0.91 0.83 0.92 0.93 0.92 0.84 0.94 0.81 0.68 0.58
0.30 0.25 0.30 0.33 0.31 0.29 0.32 0.35 0.38 0.36 0.41 0.45 0.45 0.48 0.51 0.50 0.55 0.60 0.58 0.55 0.51 0.50 0.45 0.49 0.52 0.52 0.54 0.56 0.64 0.75 0.94 1.25 1.04 0.70 0.85 1.08 1.01 0.90 0.87 1.03 0.99 0.78 0.62
0.41 0.32 0.34 0.42 0.40 0.35 0.35 0.39 0.40 0.36 0.41 0.45 0.43 0.43 0.45 0.45 0.49 0.48 0.48 0.49 0.45 0.43 0.44 0.48 0.48 0.53 0.58 0.60 0.67 0.77 0.92 1.04 0.70 0.69 0.80 0.93 0.85 0.88 0.91 1.07 1.11 0.94 0.77
0.47 0.44 0.42 0.40 0.38 0.38 0.42 0.46 0.45 0.40 0.42 0.43 0.41 0.39 0.40 0.45 0.48 0.46 0.48 0.52 0.49 0.46 0.46 0.49 0.41 0.42 0.46 0.53 0.60 0.69 0.87 0.99 0.80 0.79 0.76 0.78 0.67 0.76 0.92 1.05 1.01 0.97 0.90
0.66 0.60 0.60 0.56 0.50 0.43 0.42 0.48 0.52 0.49 0.48 0.45 0.44 0.45 0.50 0.56 0.56 0.53 0.48 0.53 0.52 0.51 0.56 0.57 0.50 0.49 0.55 0.63 0.71 0.85 0.98 0.79 0.85 0.80 0.91 0.90 0.77 0.89 1.09 1.16 1.06 1.00 0.98
0.96 0.83 0.75 0.65 0.58 0.54 0.45 0.44 0.53 0.56 0.56 0.58 0.62 0.63 0.79 0.97 0.93 0.94 0.81 0.85 0.82 0.80 0.83 0.85 0.80 0.74 0.71 0.68 0.92 1.19 0.97 0.76 0.96 1.01 1.03 0.99 0.96 1.16 1.40 1.39 1.30 1.18 1.09
1.23 0.93 0.85 0.68 0.64 0.56 0.47 0.58 0.76 0.73 0.79 0.87 0.98 1.02 1.26 1.46 1.46 1.16 1.28 1.39 1.36 1.37 1.26 1.26 1.44 1.23 0.98 0.93 1.44 1.78 1.03 0.82 0.89 0.90 0.90 0.96 1.27 1.56 1.76 1.60 1.43 1.36 1.25
1.24 1.22 1.15 0.92 0.84 0.81 0.88 0.81 0.93 1.07 1.24 1.21 1.16 1.32 1.62 1.51 1.35 1.25 1.35 1.66 1.84 1.90 1.80 1.81 1.94 1.65 1.59 1.79 1.95 1.78 1.27 1.16 1.10 1.07 1.07 1.32 1.73 2.03 2.06 1.80 1.63 1.54 1.44
1.54 1.79 1.85 1.52 1.44 1.33 1.19 1.11 1.07 1.09 1.30 1.44 1.63 1.67 1.80 1.88 1.79 1.64 1.72 1.93 2.07 2.22 2.59 2.48 2.39 2.24 2.17 2.05 2.02 1.79 1.56 1.51 1.40 1.54 1.77 1.67 1.85 2.15 2.26 2.07 1.86 1.76 1.69
2.18 2.40 2.57 2.14 2.04 1.91 1.89 1.81 1.54 1.59 1.71 1.78 1.97 2.10 2.15 2.29 2.29 2.25 2.19 2.14 2.00 2.09 2.44 2.71 2.57 2.60 2.53 2.37 2.14 1.95 1.82 1.72 1.64 1.75 1.91 2.08 2.09 2.10 2.25 2.35 2.18 1.98 1.86
2.71 2.83 2.96 2.85 2.86 2.70 2.46 2.48 2.45 2.08 2.07 2.07 2.12 2.05 2.24 2.45 2.71 2.83 2.72 2.58 2.27 2.19 2.26 2.55 2.62 2.82 2.77 2.58 2.00 1.86 1.85 1.88 1.89 1.84 1.99 2.48 2.49 2.10 2.03 2.22 2.36 2.33 2.17
3.62 3.50 3.54 3.53 3.77 3.62 3.20 2.90 2.62 2.43 2.39 2.49 2.46 2.34 2.45 2.67 2.90 2.87 2.68 2.37 2.15 2.17 2.33 2.29 2.31 2.59 2.42 2.28 2.12 2.18 2.17 2.08 1.93 1.91 2.00 2.39 2.38 2.01 1.82 1.86 2.12 2.29 2.39
4.46 4.36 4.18 3.78 4.12 4.10 3.77 3.52 3.20 2.95 2.97 2.91 2.60 2.48 2.44 2.58 2.50 2.58 2.25 1.94 2.03 2.19 2.29 2.39 2.28 2.37 2.40 2.47 2.48 2.45 2.33 2.16 1.78 1.66 1.59 1.65 1.82 1.57 1.65 1.85 1.89 1.94 2.24
4.90 5.10 5.07 4.95 4.64 4.36 4.20 4.03 3.84 3.65 3.33 2.96 2.76 2.62 2.34 2.12 1.95 2.09 1.92 1.86 1.90 2.08 2.12 1.97 2.25 2.45 2.45 2.49 2.34 2.36 2.02 1.85 1.61 1.35 1.30 1.24 1.31 1.41 1.43 1.54 1.64 1.71 2.12
4.87 5.40 5.57 5.59 5.22 4.70 4.25 3.87 3.80 3.58 3.31 3.03 2.76 2.55 2.17 1.95 1.76 1.94 1.85 1.78 1.83 1.97 2.06 2.18 2.43 2.53 2.28 2.25 2.08 1.93 1.65 1.32 1.25 1.17 1.03 1.06 1.11 1.07 1.18 1.37 1.61 1.52 1.97
4.44 5.12 5.23 5.46 4.97 4.32 3.76 3.36 3.26 3.07 2.77 2.67 2.53 2.35 2.20 1.99 1.86 2.01 1.86 1.89 1.76 1.81 1.83 1.94 2.13 2.22 1.92 2.07 2.48 2.07 1.47 1.17 1.14 0.99 0.94 0.99 1.01 1.06 1.21 1.51 1.69 1.77 1.90
3.84 4.55 4.60 4.30 4.05 3.59 3.20 3.02 2.85 2.79 2.48 2.30 2.17 2.15 1.95 1.79 1.77 1.76 1.85 1.73 1.68 1.76 1.76 1.83 2.02 2.01 1.77 1.98 2.41 2.50 1.97 1.58 1.29 0.94 0.93 0.96 1.08 1.26 1.31 1.37 1.74 2.02 2.07
3.50 3.59 3.22 3.06 3.12 3.04 2.87 2.75 2.63 2.60 2.41 2.15 1.96 1.94 1.79 1.59 1.58 1.56 1.53 1.59 1.68 1.51 1.63 1.80 1.95 2.07 1.93 1.84 2.10 2.50 2.28 1.91 1.59 1.26 1.15 1.23 1.35 1.48 1.52 1.68 1.80 1.98 2.11
2.67 2.59 2.55 2.52 2.55 2.73 2.73 2.49 2.31 2.01 1.89 1.82 1.71 1.75 1.75 1.53 1.45 1.43 1.40 1.54 1.61 1.55 1.72 1.52 1.63 1.91 2.08 1.89 1.87 1.93 1.95 2.13 2.12 1.75 1.38 1.28 1.40 1.53 1.60 1.60 1.68 1.94 2.09
2.02 2.08 2.07 2.33 2.42 2.44 2.42 2.36 2.34 2.07 1.87 1.82 1.94 2.12 2.02 1.72 1.44 1.28 1.34 1.48 1.55 1.57 1.64 1.61 1.71 1.70 1.76 1.79 1.81 1.80 1.89 2.09 2.00 1.94 1.74 1.54 1.49 1.37 1.41 1.51 1.66 1.86 1.93
1.35 1.48 1.59 1.85 2.06 2.13 2.10 2.10 2.14 2.12 2.07 1.88 1.83 1.87 1.77 1.62 1.45 1.28 1.30 1.50 1.55 1.57 1.58 1.62 1.62 1.57 1.63 1.71 1.76 1.78 1.91 1.91 1.87 1.98 1.85 1.65 1.60 1.36 1.36 1.44 1.59 1.72 1.74

GEFSSE_prec_meanprecacc_222.txt.gz
Total_Precipitation_Accumulation
0.51 0.48 0.65 0.59 0.56 0.56 0.59 0.62 0.66 0.66 0.70 0.89 1.04 1.13 1.13 1.07 1.09 1.11 1.13 1.23 1.32 1.31 1.29 1.30 1.24 1.19 1.07 1.05 0.99 0.88 0.81 0.87 0.89 0.87 0.88 0.98 1.12 1.28 1.53 1.67 1.68 1.21 1.07
0.23 0.31 0.52 0.50 0.52 0.58 0.55 0.52 0.59 0.65 0.69 0.85 1.04 1.22 1.10 0.96 0.92 0.97 1.08 1.16 1.23 1.19 1.12 1.07 1.05 0.98 0.89 0.86 0.80 0.71 0.75 0.90 1.10 1.20 1.22 1.17 1.23 1.31 1.45 1.44 1.63 1.16 1.01
0.16 0.22 0.31 0.45 0.53 0.57 0.55 0.57 0.59 0.61 0.66 0.80 0.97 1.15 1.02 0.94 0.95 1.01 1.05 1.13 1.12 1.06 0.95 0.91 0.90 0.82 0.73 0.65 0.63 0.64 0.74 0.99 1.33 1.57 1.69 1.30 0.95 1.20 1.35 1.21 1.07 0.92 0.91
0.13 0.14 0.20 0.35 0.49 0.55 0.57 0.60 0.64 0.65 0.69 0.77 0.80 0.90 0.95 0.97 0.99 1.03 1.07 1.07 1.01 0.90 0.82 0.80 0.72 0.68 0.64 0.58 0.59 0.67 0.84 1.04 1.36 1.80 1.87 1.20 0.72 0.88 1.03 0.91 0.85 0.73 0.76
0.14 0.14 0.21 0.31 0.41 0.51 0.56 0.61 0.61 0.62 0.65 0.67 0.64 0.72 0.85 0.90 0.96 1.04 1.08 1.03 0.93 0.84 0.76 0.71 0.64 0.59 0.58 0.54 0.59 0.70 0.89 1.09 1.47 1.67 1.31 1.16 1.03 0.92 0.83 0.81 0.75 0.65 0.60
0.20 0.17 0.25 0.31 0.33 0.41 0.49 0.53 0.52 0.51 0.55 0.56 0.55 0.63 0.75 0.79 0.88 1.01 0.98 0.93 0.85 0.79 0.70 0.68 0.62 0.57 0.53 0.51 0.60 0.74 0.92 1.22 1.39 0.96 0.87 0.97 0.95 0.94 0.86 0.96 0.83 0.68 0.59
0.30 0.25 0.30 0.34 0.34 0.37 0.45 0.49 0.51 0.47 0.50 0.55 0.57 0.64 0.71 0.72 0.79 0.86 0.81 0.75 0.70 0.68 0.64 0.66 0.65 0.60 0.60 0.61 0.67 0.78 0.97 1.31 1.09 0.74 0.89 1.13 1.03 0.91 0.88 1.06 1.00 0.79 0.62
0.41 0.32 0.34 0.42 0.42 0.39 0.44 0.51 0.52 0.47 0.51 0.54 0.53 0.56 0.59 0.60 0.65 0.64 0.65 0.67 0.64 0.61 0.61 0.62 0.59 0.60 0.63 0.64 0.69 0.79 0.95 1.08 0.73 0.71 0.84 0.97 0.86 0.89 0.92 1.09 1.13 0.95 0.77
0.48 0.45 0.42 0.40 0.39 0.40 0.47 0.53 0.53 0.48 0.50 0.50 0.48 0.47 0.49 0.54 0.57 0.56 0.60 0.66 0.64 0.60 0.60 0.60 0.50 0.48 0.52 0.57 0.63 0.71 0.90 1.01 0.81 0.81 0.78 0.80 0.68 0.76 0.93 1.06 1.02 0.98 0.90
0.66 0.62 0.62 0.57 0.51 0.44 0.43 0.51 0.56 0.54 0.54 0.51 0.51 0.51 0.56 0.62 0.61 0.59 0.55 0.61 0.60 0.58 0.63 0.63 0.56 0.54 0.61 0.68 0.76 0.88 1.00 0.81 0.86 0.82 0.92 0.91 0.78 0.89 1.10 1.17 1.07 1.01 0.99
0.96 0.85 0.78 0.66 0.59 0.55 0.45 0.45 0.54 0.58 0.60 0.65 0.69 0.70 0.86 1.05 0.98 0.99 0.84 0.88 0.85 0.83 0.87 0.88 0.84 0.78 0.75 0.72 0.95 1.23 1.00 0.77 0.98 1.03 1.04 1.00 0.97 1.17 1.42 1.40 1.31 1.19 1.10
1.24 0.93 0.86 0.70 0.64 0.58 0.49 0.60 0.79 0.76 0.83 0.94 1.08 1.10 1.33 1.54 1.53 1.20 1.31 1.41 1.38 1.39 1.28 1.28 1.46 1.26 1.01 0.96 1.48 1.84 1.06 0.84 0.90 0.92 0.92 0.97 1.28 1.57 1.77 1.61 1.45 1.37 1.26
1.24 1.22 1.15 0.93 0.84 0.82 0.89 0.83 0.96 1.10 1.28 1.25 1.21 1.36 1.67 1.56 1.40 1.29 1.38 1.69 1.87 1.93 1.83 1.83 1.98 1.72 1.63 1.82 1.98 1.80 1.28 1.17 1.11 1.08 1.08 1.33 1.74 2.03 2.07 1.81 1.64 1.55 1.46
1.55 1.79 1.85 1.52 1.45 1.34 1.20 1.14 1.10 1.12 1.33 1.46 1.67 1.71 1.84 1.94 1.85 1.70 1.77 1.98 2.12 2.27 2.64 2.53 2.43 2.27 2.20 2.06 2.03 1.81 1.57 1.52 1.41 1.55 1.78 1.68 1.85 2.15 2.27 2.08 1.87 1.76 1.70
2.18 2.41 2.58 2.15 2.04 1.92 1.91 1.84 1.56 1.61 1.74 1.81 2.00 2.13 2.19 2.34 2.36 2.33 2.25 2.21 2.06 2.14 2.48 2.75 2.60 2.63 2.55 2.38 2.15 1.97 1.83 1.73 1.65 1.75 1.92 2.08 2.10 2.11 2.26 2.36 2.20 1.99 1.87
2.71 2.83 2.97 2.87 2.88 2.72 2.48 2.51 2.48 2.11 2.13 2.11 2.16 2.09 2.27 2.50 2.78 2.92 2.78 2.64 2.32 2.23 2.29 2.58 2.64 2.86 2.80 2.60 2.02 1.88 1.88 1.90 1.90 1.85 2.01 2.51 2.50 2.11 2.05 2.24 2.38 2.35 2.19
3.62 3.50 3.55 3.54 3.78 3.64 3.23 2.93 2.66 2.46 2.42 2.52 2.51 2.39 2.49 2.71 2.98 2.95 2.76 2.44 2.21 2.21 2.36 2.33 2.34 2.63 2.46 2.33 2.16 2.22 2.20 2.10 1.94 1.93 2.03 2.45 2.44 2.07 1.87 1.90 2.16 2.33 2.42
4.46 4.37 4.19 3.79 4.13 4.12 3.81 3.57 3.25 2.99 3.01 2.94 2.63 2.52 2.47 2.64 2.56 2.65 2.33 2.01 2.09 2.24 2.34 2.45 2.33 2.42 2.46 2.54 2.55 2.51 2.38 2.19 1.81 1.68 1.63 1.73 1.93 1.68 1.75 1.91 1.95 1.99 2.30
4.91 5.11 5.08 4.97 4.67 4.40 4.23 4.08 3.88 3.71 3.38 3.00 2.79 2.65 2.38 2.15 1.98 2.15 2.01 1.94 1.97 2.15 2.17 2.01 2.32 2.55 2.55 2.57 2.40 2.43 2.07 1.90 1.67 1.41 1.38 1.33 1.42 1.53 1.55 1.65 1.74 1.78 2.20
4.88 5.41 5.58 5.61 5.25 4.74 4.31 3.95 3.89 3.64 3.36 3.07 2.81 2.60 2.21 2.00 1.79 2.00 1.92 1.85 1.89 2.06 2.14 2.26 2.52 2.65 2.39 2.34 2.13 1.99 1.71 1.38 1.32 1.26 1.13 1.14 1.19 1.17 1.29 1.51 1.78 1.62 2.04
4.46 5.14 5.24 5.48 5.01 4.37 3.84 3.46 3.35 3.15 2.83 2.71 2.57 2.39 2.24 2.03 1.89 2.08 1.93 1.97 1.83 1.89 1.92 2.04 2.27 2.38 2.04 2.17 2.59 2.18 1.56 1.22 1.22 1.08 1.03 1.07 1.09 1.15 1.30 1.60 1.79 1.87 2.00
3.85 4.56 4.61 4.31 4.08 3.64 3.26 3.10 2.93 2.87 2.55 2.35 2.20 2.18 1.98 1.83 1.83 1.84 1.95 1.83 1.78 1.86 1.87 1.94 2.16 2.15 1.89 2.08 2.54 2.66 2.12 1.73 1.42 1.03 1.01 1.05 1.17 1.36 1.39 1.45 1.83 2.13 2.17
3.51 3.60 3.23 3.07 3.15 3.09 2.93 2.81 2.68 2.68 2.48 2.21 2.02 1.99 1.82 1.62 1.62 1.64 1.63 1.68 1.78 1.60 1.74 1.91 2.05 2.17 2.05 1.97 2.23 2.65 2.45 2.09 1.76 1.40 1.27 1.35 1.46 1.59 1.61 1.76 1.88 2.09 2.23
2.67 2.59 2.55 2.53 2.57 2.76 2.77 2.54 2.35 2.07 1.97 1.90 1.78 1.82 1.80 1.57 1.49 1.50 1.48 1.63 1.70 1.64 1.83 1.59 1.71 2.00 2.21 2.03 2.02 2.07 2.08 2.29 2.29 1.90 1.55 1.42 1.54 1.67 1.73 1.71 1.80 2.06 2.22
2.02 2.08 2.07 2.34 2.43 2.46 2.45 2.39 2.39 2.12 1.94 1.89 1.99 2.19 2.10 1.79 1.48 1.33 1.42 1.57 1.65 1.68 1.75 1.70 1.80 1.78 1.86 1.88 1.93 1.92 2.02 2.24 2.14 2.08 1.90 1.71 1.64 1.49 1.53 1.62 1.77 1.97 2.04
1.35 1.48 1.60 1.86 2.07 2.14 2.11 2.12 2.17 2.17 2.12 1.95 1.88 1.93 1.84 1.70 1.52 1.35 1.38 1.59 1.65 1.69 1.71 1.73 1.71 1.65 1.72 1.80 1.85 1.88 2.02 2.04 2.00 2.11 2.00 1.82 1.74 1.49 1.47 1.54 1.69 1.82 1.84

GEFSSE_prec_meanprecacc_228.txt.gz
Total_Precipitation_Accumulation
0.54 0.51 0.70 0.63 0.60 0.60 0.63 0.65 0.69 0.70 0.74 0.96 1.13 1.26 1.32 1.30 1.32 1.29 1.27 1.35 1.45 1.44 1.42 1.43 1.36 1.33 1.22 1.19 1.09 0.96 0.88 0.93 0.95 0.92 0.93 1.03 1.17 1.35 1.62 1.74 1.71 1.23 1.11
0.27 0.35 0.57 0.55 0.57 0.63 0.57 0.54 0.62 0.69 0.74 0.91 1.13 1.34 1.26 1.16 1.12 1.15 1.21 1.29 1.35 1.30 1.25 1.20 1.17 1.10 1.01 0.96 0.87 0.77 0.80 0.94 1.14 1.24 1.27 1.20 1.27 1.37 1.52 1.48 1.66 1.18 1.03
0.21 0.26 0.37 0.53 0.59 0.60 0.57 0.59 0.62 0.65 0.73 0.88 1.08 1.26 1.18 1.11 1.11 1.15 1.16 1.25 1.24 1.19 1.09 1.02 0.99 0.90 0.81 0.73 0.67 0.68 0.78 1.04 1.39 1.64 1.73 1.31 0.97 1.23 1.39 1.24 1.09 0.94 0.93
0.19 0.21 0.28 0.43 0.55 0.58 0.59 0.62 0.67 0.72 0.79 0.86 0.91 1.05 1.10 1.10 1.10 1.13 1.17 1.17 1.12 1.03 0.94 0.88 0.79 0.74 0.71 0.64 0.63 0.71 0.88 1.10 1.44 1.85 1.90 1.21 0.73 0.89 1.05 0.92 0.86 0.74 0.77
0.19 0.21 0.30 0.38 0.46 0.55 0.59 0.63 0.64 0.68 0.76 0.76 0.73 0.84 0.98 1.04 1.07 1.13 1.17 1.13 1.04 0.95 0.86 0.79 0.70 0.65 0.63 0.61 0.65 0.76 0.96 1.17 1.56 1.71 1.32 1.18 1.04 0.92 0.84 0.82 0.76 0.66 0.61
0.24 0.21 0.32 0.38 0.40 0.45 0.52 0.56 0.55 0.55 0.63 0.66 0.64 0.75 0.89 0.97 1.01 1.09 1.07 1.03 0.97 0.91 0.79 0.75 0.67 0.62 0.58 0.56 0.66 0.80 1.00 1.31 1.45 0.98 0.89 0.98 0.95 0.95 0.86 0.96 0.83 0.69 0.59
0.34 0.29 0.35 0.42 0.43 0.44 0.48 0.51 0.54 0.50 0.55 0.62 0.68 0.78 0.86 0.87 0.92 0.96 0.92 0.88 0.84 0.80 0.72 0.72 0.69 0.65 0.64 0.66 0.73 0.84 1.04 1.39 1.14 0.75 0.90 1.14 1.04 0.92 0.89 1.06 1.01 0.80 0.63
0.45 0.34 0.36 0.45 0.46 0.44 0.49 0.54 0.55 0.51 0.55 0.61 0.64 0.69 0.72 0.74 0.80 0.79 0.81 0.82 0.79 0.74 0.69 0.68 0.65 0.65 0.67 0.68 0.74 0.84 1.02 1.15 0.76 0.73 0.85 0.97 0.87 0.90 0.93 1.11 1.14 0.96 0.78
0.51 0.48 0.44 0.42 0.41 0.44 0.52 0.57 0.57 0.52 0.54 0.55 0.55 0.57 0.64 0.74 0.78 0.77 0.78 0.79 0.76 0.71 0.68 0.67 0.55 0.53 0.55 0.60 0.66 0.75 0.96 1.08 0.86 0.85 0.80 0.81 0.70 0.77 0.94 1.07 1.03 0.99 0.91
0.69 0.65 0.64 0.59 0.52 0.46 0.46 0.56 0.62 0.59 0.58 0.55 0.56 0.58 0.69 0.81 0.81 0.78 0.69 0.73 0.72 0.69 0.71 0.70 0.61 0.59 0.63 0.70 0.79 0.91 1.05 0.85 0.90 0.88 0.96 0.93 0.80 0.91 1.10 1.18 1.08 1.02 0.99
0.99 0.89 0.83 0.70 0.61 0.56 0.47 0.47 0.58 0.63 0.65 0.70 0.74 0.75 0.95 1.16 1.11 1.12 0.97 1.01 0.98 0.93 0.95 0.96 0.90 0.82 0.78 0.75 0.98 1.27 1.04 0.80 1.01 1.09 1.07 1.02 0.99 1.19 1.43 1.41 1.32 1.21 1.11
1.26 0.96 0.89 0.75 0.68 0.61 0.51 0.62 0.82 0.78 0.86 0.97 1.09 1.12 1.41 1.64 1.62 1.31 1.44 1.53 1.49 1.48 1.38 1.37 1.53 1.31 1.03 0.98 1.51 1.87 1.09 0.87 0.92 0.96 0.95 1.00 1.30 1.58 1.78 1.62 1.45 1.38 1.28
1.26 1.24 1.16 0.96 0.88 0.85 0.93 0.86 0.99 1.14 1.31 1.28 1.23 1.38 1.72 1.62 1.48 1.39 1.49 1.80 1.96 2.01 1.92 1.91 2.03 1.76 1.67 1.85 2.01 1.84 1.30 1.19 1.14 1.11 1.11 1.35 1.75 2.04 2.07 1.81 1.64 1.56 1.47
1.55 1.80 1.86 1.53 1.47 1.37 1.23 1.17 1.14 1.21 1.37 1.50 1.70 1.73 1.86 1.98 1.91 1.78 1.84 2.04 2.18 2.31 2.69 2.58 2.49 2.32 2.24 2.10 2.06 1.83 1.59 1.54 1.44 1.58 1.82 1.71 1.87 2.17 2.28 2.09 1.87 1.77 1.70
2.19 2.41 2.58 2.16 2.06 1.94 1.94 1.88 1.60 1.68 1.80 1.91 2.03 2.15 2.20 2.36 2.39 2.37 2.29 2.24 2.09 2.18 2.53 2.79 2.66 2.67 2.58 2.41 2.18 2.00 1.87 1.76 1.67 1.78 1.94 2.11 2.11 2.13 2.28 2.38 2.21 2.00 1.88
2.72 2.84 2.98 2.88 2.88 2.73 2.50 2.54 2.52 2.17 2.22 2.19 2.19 2.12 2.30 2.51 2.80 2.94 2.81 2.66 2.36 2.26 2.33 2.61 2.67 2.89 2.82 2.63 2.05 1.93 1.93 1.93 1.94 1.89 2.05 2.53 2.52 2.14 2.09 2.29 2.42 2.38 2.22
3.62 3.51 3.55 3.54 3.78 3.65 3.24 2.95 2.69 2.51 2.46 2.57 2.54 2.42 2.51 2.73 2.99 2.97 2.79 2.47 2.24 2.23 2.39 2.36 2.36 2.65 2.48 2.35 2.21 2.27 2.25 2.16 2.01 1.98 2.08 2.50 2.49 2.13 1.96 1.98 2.23 2.40 2.49
4.46 4.37 4.20 3.79 4.13 4.13 3.81 3.58 3.27 3.02 3.05 2.97 2.66 2.55 2.50 2.67 2.58 2.67 2.35 2.03 2.11 2.26 2.35 2.47 2.36 2.45 2.49 2.58 2.61 2.58 2.45 2.29 1.91 1.78 1.72 1.81 2.02 1.76 1.85 2.02 2.06 2.08 2.41
4.91 5.12 5.08 4.97 4.68 4.41 4.24 4.09 3.90 3.73 3.40 3.01 2.82 2.68 2.41 2.17 1.99 2.17 2.02 1.96 1.99 2.17 2.19 2.04 2.35 2.58 2.58 2.61 2.45 2.50 2.16 1.99 1.77 1.52 1.49 1.46 1.57 1.69 1.70 1.79 1.88 1.89 2.30
4.89 5.42 5.58 5.62 5.26 4.76 4.32 3.97 3.90 3.66 3.37 3.09 2.83 2.63 2.24 2.03 1.81 2.02 1.94 1.87 1.91 2.08 2.17 2.29 2.57 2.68 2.42 2.37 2.19 2.07 1.81 1.48 1.43 1.37 1.23 1.28 1.37 1.34 1.46 1.64 1.88 1.70 2.11
4.47 5.14 5.25 5.49 5.02 4.38 3.85 3.48 3.37 3.16 2.85 2.72 2.59 2.41 2.26 2.05 1.91 2.10 1.94 2.00 1.86 1.93 1.95 2.07 2.31 2.42 2.08 2.21 2.65 2.26 1.67 1.34 1.35 1.22 1.18 1.25 1.29 1.30 1.47 1.74 1.88 1.94 2.06
3.87 4.56 4.61 4.32 4.09 3.64 3.26 3.11 2.94 2.88 2.56 2.37 2.21 2.21 2.01 1.85 1.85 1.85 1.98 1.86 1.82 1.93 1.93 2.01 2.20 2.20 1.94 2.14 2.61 2.71 2.17 1.80 1.52 1.13 1.12 1.19 1.31 1.50 1.54 1.57 1.94 2.23 2.26
3.52 3.60 3.23 3.07 3.15 3.10 2.94 2.83 2.70 2.69 2.49 2.22 2.04 2.01 1.84 1.64 1.65 1.66 1.67 1.74 1.85 1.68 1.80 1.97 2.11 2.23 2.11 2.03 2.31 2.71 2.49 2.14 1.82 1.45 1.33 1.42 1.56 1.70 1.74 1.89 2.00 2.21 2.34
2.68 2.59 2.55 2.53 2.58 2.77 2.77 2.54 2.36 2.09 1.99 1.91 1.80 1.84 1.82 1.59 1.52 1.53 1.52 1.67 1.75 1.69 1.89 1.66 1.78 2.07 2.27 2.07 2.08 2.13 2.15 2.34 2.33 1.94 1.60 1.50 1.62 1.76 1.83 1.83 1.89 2.16 2.33
2.02 2.08 2.07 2.35 2.44 2.48 2.46 2.41 2.41 2.14 1.96 1.90 2.02 2.22 2.14 1.83 1.51 1.35 1.45 1.59 1.68 1.72 1.80 1.75 1.86 1.85 1.93 1.96 2.00 1.99 2.08 2.29 2.18 2.12 1.95 1.76 1.69 1.54 1.59 1.70 1.86 2.06 2.15
1.35 1.48 1.60 1.86 2.08 2.16 2.12 2.13 2.19 2.18 2.14 1.96 1.90 1.95 1.89 1.75 1.55 1.39 1.42 1.62 1.68 1.72 1.74 1.78 1.78 1.73 1.81 1.90 1.95 1.97 2.10 2.10 2.04 2.15 2.06 1.88 1.78 1.52 1.52 1.58 1.76 1.90 1.92

GEFSSE_prec_meanprecacc_234.txt.gz
Total_Precipitation_Accumulation
0.57 0.55 0.76 0.69 0.65 0.66 0.67 0.69 0.74 0.75 0.81 1.05 1.23 1.37 1.47 1.48 1.49 1.45 1.41 1.47 1.57 1.57 1.57 1.57 1.50 1.45 1.36 1.32 1.21 1.05 0.96 1.01 1.02 0.99 1.00 1.10 1.23 1.40 1.66 1.77 1.74 1.25 1.16
0.30 0.38 0.63 0.62 0.63 0.67 0.60 0.58 0.65 0.73 0.80 0.99 1.22 1.44 1.40 1.34 1.28 1.29 1.31 1.39 1.46 1.42 1.37 1.33 1.31 1.23 1.15 1.07 0.96 0.84 0.88 1.01 1.21 1.30 1.33 1.26 1.32 1.42 1.56 1.51 1.67 1.20 1.06
0.23 0.29 0.42 0.59 0.64 0.62 0.59 0.61 0.65 0.70 0.79 0.96 1.17 1.37 1.32 1.28 1.28 1.29 1.29 1.36 1.38 1.33 1.23 1.14 1.11 1.02 0.92 0.82 0.75 0.74 0.83 1.09 1.44 1.68 1.77 1.33 1.01 1.28 1.42 1.26 1.11 0.96 0.94
0.24 0.26 0.34 0.48 0.58 0.60 0.61 0.64 0.70 0.77 0.85 0.97 1.03 1.17 1.22 1.23 1.24 1.25 1.27 1.26 1.22 1.15 1.07 0.99 0.89 0.83 0.79 0.72 0.70 0.77 0.92 1.13 1.47 1.88 1.91 1.22 0.74 0.92 1.08 0.95 0.89 0.76 0.78
0.24 0.25 0.36 0.41 0.49 0.58 0.62 0.66 0.69 0.77 0.87 0.90 0.89 0.98 1.11 1.16 1.18 1.23 1.24 1.20 1.12 1.05 0.98 0.89 0.78 0.73 0.71 0.68 0.70 0.81 1.01 1.22 1.60 1.73 1.33 1.18 1.05 0.94 0.86 0.84 0.79 0.68 0.63
0.26 0.24 0.38 0.43 0.43 0.48 0.56 0.60 0.59 0.66 0.79 0.81 0.81 0.88 1.01 1.07 1.10 1.17 1.14 1.09 1.05 1.01 0.89 0.84 0.75 0.69 0.64 0.62 0.70 0.84 1.05 1.37 1.48 0.99 0.89 0.98 0.96 0.96 0.88 0.98 0.85 0.71 0.61
0.36 0.31 0.39 0.46 0.46 0.47 0.52 0.55 0.59 0.59 0.69 0.76 0.81 0.90 0.97 0.96 1.00 1.04 0.99 0.96 0.93 0.90 0.81 0.80 0.76 0.70 0.69 0.69 0.76 0.87 1.08 1.45 1.15 0.75 0.90 1.14 1.05 0.93 0.90 1.08 1.02 0.81 0.64
0.47 0.36 0.38 0.48 0.50 0.48 0.53 0.59 0.62 0.62 0.71 0.78 0.78 0.81 0.84 0.82 0.87 0.86 0.89 0.93 0.91 0.86 0.79 0.77 0.71 0.69 0.71 0.72 0.77 0.88 1.05 1.18 0.76 0.74 0.85 0.97 0.88 0.91 0.95 1.12 1.14 0.97 0.79
0.54 0.50 0.46 0.43 0.43 0.47 0.56 0.62 0.63 0.63 0.71 0.77 0.74 0.72 0.77 0.83 0.86 0.83 0.88 0.91 0.87 0.80 0.74 0.73 0.60 0.58 0.59 0.65 0.69 0.80 0.99 1.11 0.88 0.86 0.80 0.81 0.71 0.80 0.96 1.09 1.04 1.00 0.91
0.72 0.67 0.65 0.60 0.53 0.47 0.50 0.62 0.69 0.69 0.72 0.73 0.76 0.78 0.85 0.94 0.92 0.87 0.78 0.82 0.81 0.76 0.76 0.74 0.66 0.62 0.66 0.74 0.82 0.97 1.08 0.87 0.92 0.88 0.96 0.93 0.82 0.93 1.13 1.20 1.10 1.04 1.00
1.00 0.90 0.85 0.71 0.62 0.57 0.49 0.51 0.63 0.70 0.74 0.82 0.89 0.92 1.11 1.29 1.22 1.21 1.03 1.09 1.05 0.98 1.00 1.01 0.95 0.86 0.81 0.78 1.02 1.31 1.06 0.82 1.03 1.10 1.07 1.03 1.02 1.21 1.44 1.42 1.33 1.22 1.13
1.27 0.97 0.91 0.77 0.69 0.61 0.52 0.63 0.85 0.82 0.89 1.02 1.15 1.22 1.54 1.76 1.73 1.38 1.50 1.61 1.56 1.54 1.44 1.43 1.60 1.36 1.07 1.01 1.54 1.89 1.10 0.88 0.94 0.98 0.96 1.01 1.32 1.61 1.79 1.63 1.46 1.40 1.29
1.26 1.24 1.18 0.98 0.90 0.86 0.94 0.87 1.00 1.15 1.33 1.29 1.25 1.43 1.82 1.71 1.56 1.45 1.56 1.88 2.03 2.08 1.98 1.97 2.09 1.80 1.70 1.87 2.03 1.85 1.32 1.20 1.14 1.12 1.12 1.37 1.78 2.06 2.09 1.82 1.65 1.57 1.49
1.56 1.81 1.87 1.56 1.50 1.39 1.24 1.18 1.15 1.23 1.38 1.52 1.72 1.77 1.93 2.06 1.99 1.85 1.92 2.12 2.26 2.38 2.76 2.64 2.54 2.36 2.27 2.13 2.08 1.84 1.60 1.55 1.45 1.59 1.84 1.74 1.90 2.20 2.31 2.11 1.89 1.78 1.73
2.19 2.42 2.59 2.17 2.08 1.96 1.96 1.90 1.62 1.70 1.81 1.93 2.06 2.19 2.25 2.43 2.47 2.44 2.37 2.31 2.16 2.24 2.58 2.83 2.70 2.71 2.61 2.44 2.20 2.01 1.87 1.77 1.68 1.79 1.97 2.15 2.15 2.17 2.33 2.43 2.25 2.03 1.92
2.72 2.84 2.98 2.88 2.89 2.74 2.52 2.55 2.53 2.18 2.25 2.23 2.25 2.18 2.35 2.57 2.87 3.00 2.87 2.72 2.41 2.31 2.36 2.64 2.71 2.92 2.85 2.65 2.06 1.95 1.95 1.95 1.96 1.91 2.08 2.57 2.58 2.19 2.15 2.37 2.51 2.45 2.29
3.63 3.51 3.56 3.55 3.79 3.65 3.25 2.96 2.70 2.52 2.48 2.59 2.57 2.46 2.56 2.78 3.04 3.03 2.85 2.52 2.29 2.29 2.43 2.40 2.40 2.70 2.52 2.38 2.24 2.31 2.29 2.19 2.04 2.01 2.12 2.54 2.55 2.21 2.05 2.07 2.33 2.51 2.61
4.47 4.38 4.20 3.80 4.14 4.14 3.82 3.58 3.28 3.03 3.06 2.98 2.67 2.58 2.54 2.71 2.61 2.71 2.40 2.09 2.16 2.31 2.41 2.52 2.41 2.49 2.53 2.62 2.66 2.63 2.51 2.34 1.95 1.82 1.76 1.85 2.09 1.84 1.95 2.14 2.20 2.24 2.59
4.92 5.12 5.09 4.98 4.69 4.43 4.25 4.10 3.90 3.74 3.40 3.02 2.84 2.71 2.45 2.21 2.01 2.18 2.05 2.00 2.03 2.22 2.25 2.09 2.39 2.61 2.62 2.65 2.51 2.56 2.21 2.04 1.83 1.58 1.55 1.51 1.64 1.77 1.79 1.89 1.99 2.03 2.44
4.89 5.43 5.59 5.63 5.29 4.79 4.34 3.98 3.91 3.67 3.38 3.10 2.86 2.66 2.29 2.07 1.84 2.05 1.98 1.91 1.95 2.12 2.22 2.34 2.61 2.72 2.46 2.41 2.23 2.13 1.85 1.51 1.47 1.42 1.29 1.34 1.44 1.43 1.58 1.75 1.98 1.80 2.23
4.47 5.15 5.25 5.51 5.04 4.41 3.87 3.49 3.37 3.17 2.86 2.74 2.61 2.45 2.30 2.07 1.95 2.15 1.99 2.04 1.91 1.98 2.00 2.11 2.36 2.48 2.14 2.26 2.70 2.30 1.71 1.38 1.40 1.28 1.24 1.32 1.36 1.40 1.57 1.85 2.00 2.05 2.16
3.87 4.57 4.61 4.32 4.10 3.67 3.28 3.12 2.95 2.89 2.57 2.38 2.24 2.24 2.04 1.90 1.90 1.90 2.02 1.90 1.87 1.98 1.98 2.05 2.26 2.26 2.00 2.20 2.66 2.75 2.22 1.85 1.57 1.22 1.19 1.26 1.38 1.58 1.63 1.66 2.03 2.32 2.34
3.52 3.60 3.23 3.08 3.16 3.11 2.95 2.85 2.72 2.70 2.50 2.23 2.06 2.03 1.88 1.69 1.69 1.70 1.71 1.77 1.88 1.71 1.84 2.01 2.16 2.27 2.14 2.08 2.36 2.75 2.51 2.16 1.84 1.48 1.37 1.48 1.61 1.77 1.83 1.98 2.07 2.29 2.43
2.68 2.59 2.56 2.54 2.58 2.78 2.79 2.57 2.38 2.10 2.00 1.93 1.82 1.87 1.85 1.62 1.54 1.56 1.56 1.71 1.79 1.74 1.93 1.69 1.81 2.09 2.28 2.10 2.14 2.19 2.20 2.37 2.36 1.98 1.64 1.53 1.65 1.80 1.87 1.88 1.96 2.23 2.41
2.02 2.09 2.07 2.35 2.45 2.48 2.47 2.43 2.43 2.16 1.98 1.94 2.05 2.24 2.17 1.84 1.52 1.37 1.47 1.62 1.72 1.77 1.84 1.78 1.88 1.87 1.95 1.99 2.06 2.06 2.16 2.35 2.23 2.15 1.97 1.78 1.71 1.56 1.62 1.75 1.91 2.13 2.24
1.35 1.48 1.60 1.87 2.08 2.16 2.13 2.15 2.21 2.21 2.17 2.00 1.93 1.98 1.91 1.77 1.57 1.40 1.44 1.63 1.71 1.75 1.76 1.80 1.80 1.74 1.83 1.92 1.98 2.01 2.15 2.16 2.10 2.20 2.08 1.89 1.80 1.54 1.54 1.61 1.80 1.95 2.01

GEFSSE_prec_meanprecacc_240.txt.gz
Total_Precipitation_Accumulation
0.58 0.57 0.81 0.77 0.74 0.74 0.74 0.77 0.83 0.86 0.95 1.22 1.42 1.54 1.63 1.65 1.66 1.59 1.52 1.59 1.71 1.76 1.78 1.76 1.67 1.58 1.46 1.41 1.30 1.13 1.02 1.07 1.09 1.05 1.06 1.16 1.28 1.47 1.72 1.84 1.79 1.29 1.22
0.31 0.40 0.68 0.70 0.72 0.74 0.67 0.65 0.74 0.84 0.93 1.12 1.37 1.59 1.56 1.52 1.47 1.47 1.46 1.51 1.57 1.56 1.53 1.48 1.43 1.33 1.24 1.16 1.04 0.91 0.94 1.08 1.28 1.36 1.40 1.32 1.38 1.48 1.62 1.55 1.71 1.24 1.10
0.26 0.33 0.47 0.67 0.72 0.68 0.64 0.67 0.72 0.78 0.91 1.07 1.32 1.52 1.46 1.41 1.42 1.44 1.39 1.44 1.48 1.46 1.35 1.26 1.23 1.11 1.01 0.91 0.81 0.80 0.89 1.14 1.50 1.72 1.82 1.38 1.05 1.32 1.47 1.31 1.15 0.98 0.97
0.28 0.32 0.40 0.56 0.66 0.66 0.67 0.69 0.76 0.83 0.96 1.10 1.18 1.32 1.36 1.37 1.38 1.41 1.39 1.35 1.34 1.28 1.19 1.12 1.02 0.93 0.88 0.80 0.76 0.81 0.96 1.17 1.51 1.90 1.94 1.25 0.77 0.95 1.11 0.99 0.92 0.78 0.80
0.27 0.32 0.43 0.47 0.55 0.64 0.67 0.72 0.75 0.83 0.97 1.01 1.03 1.14 1.28 1.31 1.33 1.40 1.39 1.35 1.31 1.24 1.13 1.01 0.90 0.84 0.80 0.74 0.74 0.84 1.04 1.25 1.63 1.76 1.36 1.22 1.08 0.96 0.88 0.86 0.82 0.71 0.64
0.28 0.29 0.44 0.48 0.49 0.54 0.62 0.66 0.65 0.72 0.85 0.90 0.95 1.02 1.16 1.21 1.22 1.29 1.26 1.24 1.23 1.17 1.02 0.97 0.88 0.80 0.71 0.66 0.73 0.88 1.08 1.39 1.49 1.01 0.92 1.02 0.98 0.98 0.90 1.00 0.87 0.73 0.63
0.37 0.34 0.44 0.51 0.51 0.52 0.57 0.60 0.64 0.66 0.76 0.86 0.96 1.04 1.10 1.07 1.10 1.13 1.10 1.10 1.10 1.05 0.94 0.90 0.84 0.77 0.74 0.73 0.80 0.90 1.11 1.46 1.16 0.77 0.93 1.18 1.07 0.95 0.93 1.10 1.05 0.83 0.66
0.48 0.38 0.40 0.52 0.55 0.54 0.59 0.64 0.67 0.72 0.82 0.91 0.91 0.94 0.96 0.92 0.95 0.94 0.99 1.03 1.00 0.95 0.87 0.85 0.77 0.75 0.75 0.76 0.81 0.91 1.08 1.19 0.77 0.75 0.87 1.00 0.90 0.92 0.96 1.14 1.16 0.99 0.80
0.55 0.51 0.47 0.45 0.47 0.53 0.67 0.78 0.78 0.77 0.84 0.91 0.86 0.83 0.88 0.92 0.94 0.92 0.96 0.99 0.93 0.86 0.81 0.79 0.65 0.62 0.62 0.68 0.73 0.83 1.02 1.13 0.89 0.87 0.81 0.83 0.73 0.81 0.98 1.11 1.06 1.01 0.93
0.72 0.68 0.67 0.62 0.56 0.52 0.61 0.78 0.85 0.83 0.86 0.88 0.91 0.89 0.95 1.02 1.00 0.96 0.86 0.89 0.87 0.82 0.82 0.80 0.71 0.66 0.68 0.77 0.86 0.99 1.10 0.89 0.94 0.89 0.97 0.94 0.82 0.94 1.16 1.22 1.12 1.06 1.02
1.01 0.91 0.86 0.73 0.63 0.60 0.55 0.63 0.77 0.84 0.88 0.95 1.03 1.04 1.19 1.37 1.30 1.31 1.13 1.19 1.14 1.06 1.06 1.07 1.01 0.91 0.85 0.83 1.08 1.34 1.07 0.84 1.05 1.11 1.10 1.05 1.03 1.23 1.46 1.44 1.35 1.24 1.14
1.28 0.98 0.92 0.79 0.71 0.63 0.56 0.69 0.90 0.87 0.96 1.11 1.27 1.35 1.64 1.84 1.83 1.48 1.64 1.74 1.67 1.62 1.51 1.50 1.65 1.40 1.10 1.06 1.58 1.92 1.11 0.89 0.95 0.99 0.98 1.03 1.34 1.63 1.82 1.65 1.48 1.41 1.31
1.28 1.26 1.20 1.00 0.92 0.89 0.96 0.91 1.06 1.21 1.39 1.38 1.35 1.57 1.95 1.83 1.68 1.58 1.71 2.01 2.14 2.16 2.06 2.04 2.14 1.83 1.72 1.91 2.07 1.86 1.32 1.20 1.15 1.13 1.14 1.39 1.79 2.09 2.12 1.85 1.67 1.59 1.52
1.57 1.81 1.89 1.57 1.52 1.42 1.27 1.22 1.19 1.26 1.43 1.58 1.80 1.91 2.06 2.18 2.13 1.98 2.04 2.21 2.33 2.44 2.82 2.69 2.59 2.40 2.31 2.16 2.11 1.87 1.61 1.56 1.46 1.61 1.86 1.76 1.92 2.22 2.35 2.14 1.92 1.81 1.77
2.20 2.43 2.60 2.19 2.10 1.98 1.98 1.93 1.65 1.73 1.86 1.98 2.15 2.34 2.36 2.54 2.59 2.54 2.45 2.38 2.20 2.27 2.62 2.88 2.76 2.76 2.66 2.48 2.23 2.04 1.89 1.78 1.70 1.81 1.99 2.16 2.17 2.20 2.37 2.49 2.31 2.08 1.98
2.73 2.85 2.99 2.90 2.92 2.78 2.56 2.58 2.56 2.22 2.31 2.31 2.36 2.34 2.49 2.67 2.97 3.10 2.96 2.79 2.45 2.35 2.41 2.70 2.79 3.00 2.92 2.71 2.11 1.98 1.97 1.97 1.99 1.93 2.10 2.60 2.60 2.23 2.21 2.45 2.61 2.58 2.42
3.64 3.53 3.58 3.57 3.82 3.71 3.30 2.99 2.71 2.54 2.51 2.67 2.70 2.61 2.68 2.88 3.15 3.12 2.94 2.60 2.34 2.33 2.49 2.49 2.52 2.79 2.60 2.46 2.30 2.36 2.34 2.24 2.08 2.04 2.14 2.58 2.59 2.25 2.12 2.15 2.42 2.64 2.75
4.48 4.40 4.22 3.81 4.17 4.19 3.88 3.63 3.30 3.05 3.09 3.04 2.77 2.69 2.65 2.80 2.71 2.80 2.50 2.17 2.23 2.38 2.51 2.67 2.55 2.61 2.63 2.71 2.75 2.72 2.59 2.43 2.02 1.87 1.80 1.90 2.14 1.89 2.02 2.23 2.29 2.35 2.73
4.93 5.13 5.11 5.00 4.73 4.47 4.29 4.13 3.92 3.76 3.43 3.05 2.89 2.79 2.53 2.28 2.08 2.26 2.17 2.12 2.14 2.34 2.38 2.22 2.53 2.74 2.72 2.73 2.58 2.63 2.28 2.14 1.92 1.65 1.60 1.56 1.70 1.84 1.87 1.97 2.07 2.12 2.54
4.89 5.43 5.61 5.67 5.32 4.81 4.36 4.00 3.93 3.70 3.41 3.13 2.89 2.73 2.35 2.14 1.90 2.14 2.12 2.05 2.08 2.25 2.36 2.48 2.75 2.86 2.55 2.49 2.29 2.18 1.89 1.56 1.52 1.48 1.34 1.40 1.51 1.50 1.64 1.84 2.09 1.89 2.33
4.47 5.15 5.29 5.58 5.07 4.43 3.89 3.53 3.42 3.22 2.91 2.78 2.64 2.48 2.34 2.12 2.01 2.25 2.10 2.17 2.04 2.10 2.12 2.23 2.47 2.57 2.22 2.34 2.77 2.35 1.75 1.42 1.42 1.30 1.28 1.37 1.42 1.46 1.65 1.93 2.10 2.17 2.25
3.87 4.57 4.62 4.34 4.12 3.68 3.30 3.15 2.99 2.93 2.60 2.41 2.27 2.27 2.07 1.93 1.95 1.97 2.13 2.01 1.97 2.08 2.07 2.13 2.33 2.33 2.05 2.26 2.72 2.81 2.26 1.89 1.60 1.25 1.23 1.30 1.43 1.64 1.71 1.74 2.12 2.42 2.42
3.52 3.60 3.23 3.09 3.18 3.13 2.97 2.87 2.73 2.73 2.53 2.26 2.09 2.07 1.92 1.72 1.72 1.75 1.77 1.84 1.96 1.76 1.89 2.06 2.21 2.32 2.19 2.12 2.40 2.81 2.58 2.21 1.88 1.52 1.39 1.50 1.65 1.82 1.89 2.04 2.14 2.34 2.49
2.68 2.59 2.56 2.55 2.59 2.79 2.80 2.58 2.40 2.13 2.04 1.97 1.86 1.90 1.89 1.64 1.56 1.58 1.60 1.75 1.84 1.78 1.99 1.73 1.85 2.14 2.35 2.16 2.18 2.23 2.25 2.44 2.42 2.02 1.66 1.55 1.68 1.83 1.91 1.93 2.00 2.26 2.46
2.02 2.09 2.08 2.36 2.46 2.49 2.48 2.44 2.46 2.20 2.03 1.98 2.09 2.28 2.20 1.86 1.54 1.38 1.49 1.64 1.75 1.80 1.88 1.82 1.92 1.91 1.99 2.04 2.12 2.10 2.21 2.41 2.28 2.20 2.01 1.81 1.74 1.60 1.66 1.78 1.94 2.18 2.31
1.35 1.48 1.60 1.87 2.09 2.17 2.14 2.15 2.22 2.24 2.21 2.03 1.97 2.03 1.95 1.79 1.59 1.42 1.46 1.66 1.73 1.77 1.79 1.84 1.85 1.79 1.87 1.97 2.02 2.04 2.20 2.23 2.17 2.26 2.13 1.94 1.84 1.59 1.58 1.64 1.84 1.99 2.05

GEFSSE_prec_meanprecacc_246.txt.gz
Total_Precipitation_Accumulation
0.61 0.60 0.87 0.85 0.84 0.82 0.81 0.83 0.91 1.01 1.11 1.37 1.57 1.68 1.76 1.78 1.79 1.72 1.67 1.75 1.87 1.90 1.91 1.91 1.81 1.71 1.59 1.54 1.44 1.25 1.11 1.15 1.16 1.10 1.10 1.20 1.33 1.52 1.80 1.96 1.91 1.38 1.32
0.34 0.45 0.74 0.77 0.81 0.81 0.72 0.70 0.81 0.94 1.08 1.27 1.54 1.75 1.70 1.65 1.59 1.59 1.60 1.66 1.72 1.68 1.66 1.62 1.57 1.46 1.36 1.30 1.17 1.01 1.03 1.16 1.37 1.43 1.45 1.37 1.44 1.59 1.77 1.70 1.86 1.34 1.19
0.30 0.37 0.51 0.72 0.79 0.74 0.69 0.73 0.81 0.87 1.03 1.21 1.47 1.69 1.62 1.56 1.56 1.56 1.52 1.59 1.62 1.59 1.48 1.38 1.35 1.23 1.11 1.00 0.89 0.87 0.96 1.21 1.57 1.81 1.91 1.43 1.09 1.38 1.55 1.41 1.25 1.04 1.02
0.32 0.36 0.44 0.59 0.70 0.71 0.71 0.75 0.85 0.95 1.09 1.22 1.30 1.45 1.50 1.51 1.51 1.54 1.52 1.47 1.46 1.40 1.31 1.24 1.14 1.02 0.96 0.85 0.81 0.87 1.01 1.22 1.57 2.00 2.04 1.31 0.81 0.98 1.15 1.03 0.96 0.82 0.83
0.32 0.37 0.47 0.50 0.60 0.69 0.71 0.77 0.82 0.96 1.12 1.16 1.17 1.26 1.39 1.44 1.46 1.53 1.52 1.45 1.41 1.35 1.25 1.12 1.01 0.92 0.86 0.78 0.78 0.88 1.08 1.29 1.68 1.85 1.44 1.27 1.11 0.97 0.89 0.88 0.84 0.73 0.65
0.32 0.32 0.46 0.50 0.52 0.59 0.67 0.72 0.71 0.81 0.97 1.04 1.11 1.19 1.29 1.34 1.35 1.42 1.38 1.34 1.31 1.25 1.11 1.06 0.97 0.87 0.77 0.70 0.76 0.90 1.11 1.42 1.54 1.08 0.99 1.09 1.01 1.00 0.91 1.01 0.89 0.75 0.64
0.39 0.36 0.46 0.53 0.54 0.56 0.61 0.64 0.69 0.73 0.85 0.95 1.10 1.21 1.25 1.23 1.27 1.29 1.26 1.22 1.19 1.13 1.02 0.99 0.92 0.84 0.80 0.77 0.82 0.93 1.13 1.50 1.21 0.83 0.99 1.26 1.10 0.96 0.94 1.12 1.06 0.84 0.67
0.49 0.40 0.42 0.54 0.57 0.56 0.62 0.67 0.71 0.77 0.88 0.97 0.99 1.05 1.07 1.03 1.07 1.07 1.12 1.13 1.09 1.02 0.95 0.93 0.84 0.82 0.80 0.79 0.84 0.94 1.10 1.22 0.80 0.78 0.92 1.05 0.92 0.94 0.98 1.16 1.19 1.00 0.82
0.56 0.52 0.49 0.48 0.49 0.55 0.72 0.81 0.81 0.80 0.88 0.96 0.92 0.92 0.96 1.02 1.03 1.02 1.05 1.06 1.01 0.94 0.89 0.86 0.71 0.67 0.65 0.70 0.75 0.85 1.04 1.16 0.90 0.89 0.85 0.86 0.74 0.83 1.01 1.14 1.08 1.03 0.94
0.73 0.68 0.69 0.65 0.59 0.59 0.70 0.82 0.88 0.86 0.90 0.92 0.97 0.98 1.04 1.11 1.09 1.05 0.93 0.95 0.95 0.90 0.90 0.86 0.75 0.70 0.70 0.78 0.87 1.00 1.11 0.91 0.96 0.91 1.00 0.97 0.84 0.96 1.18 1.25 1.15 1.08 1.04
1.02 0.91 0.87 0.74 0.66 0.68 0.66 0.73 0.84 0.91 0.94 1.02 1.11 1.14 1.29 1.47 1.40 1.41 1.21 1.26 1.21 1.13 1.12 1.12 1.04 0.93 0.87 0.86 1.10 1.35 1.08 0.85 1.06 1.13 1.15 1.09 1.04 1.25 1.48 1.46 1.37 1.26 1.16
1.30 1.00 0.94 0.80 0.76 0.73 0.66 0.79 1.00 0.97 1.04 1.19 1.36 1.45 1.74 1.94 1.93 1.56 1.72 1.82 1.72 1.69 1.58 1.56 1.69 1.43 1.13 1.09 1.61 1.94 1.12 0.90 0.96 1.02 1.02 1.05 1.35 1.64 1.83 1.66 1.49 1.43 1.33
1.29 1.28 1.21 1.03 1.00 1.00 1.07 0.99 1.14 1.31 1.48 1.47 1.44 1.66 2.05 1.92 1.77 1.67 1.82 2.13 2.23 2.24 2.13 2.11 2.21 1.88 1.76 1.94 2.10 1.89 1.34 1.23 1.18 1.21 1.22 1.45 1.82 2.10 2.13 1.85 1.67 1.60 1.55
1.58 1.82 1.90 1.59 1.57 1.49 1.35 1.29 1.26 1.34 1.52 1.68 1.89 1.99 2.15 2.27 2.21 2.08 2.14 2.30 2.40 2.52 2.89 2.75 2.66 2.45 2.34 2.19 2.14 1.89 1.64 1.60 1.50 1.68 1.92 1.79 1.93 2.23 2.36 2.15 1.94 1.83 1.80
2.22 2.44 2.62 2.21 2.15 2.05 2.06 2.01 1.74 1.82 1.94 2.06 2.24 2.42 2.44 2.63 2.68 2.63 2.53 2.45 2.26 2.33 2.67 2.92 2.80 2.80 2.69 2.52 2.27 2.07 1.92 1.80 1.73 1.86 2.04 2.19 2.18 2.21 2.41 2.52 2.35 2.11 2.03
2.75 2.87 3.01 2.92 2.97 2.86 2.62 2.65 2.64 2.29 2.37 2.37 2.43 2.44 2.55 2.76 3.08 3.19 3.05 2.88 2.51 2.41 2.46 2.74 2.82 3.02 2.95 2.76 2.17 2.04 2.01 2.00 2.03 1.97 2.15 2.64 2.63 2.25 2.24 2.51 2.67 2.63 2.47
3.66 3.55 3.60 3.58 3.84 3.75 3.34 3.03 2.76 2.58 2.55 2.72 2.77 2.74 2.76 2.96 3.27 3.24 3.05 2.70 2.41 2.38 2.54 2.54 2.55 2.83 2.66 2.52 2.39 2.43 2.39 2.28 2.15 2.09 2.19 2.65 2.65 2.30 2.15 2.20 2.48 2.70 2.81
4.50 4.42 4.24 3.82 4.19 4.22 3.91 3.68 3.33 3.08 3.13 3.11 2.83 2.86 2.76 2.89 2.82 2.90 2.60 2.27 2.30 2.44 2.56 2.73 2.61 2.68 2.73 2.81 2.85 2.80 2.67 2.51 2.08 1.93 1.85 1.97 2.22 1.95 2.07 2.28 2.34 2.41 2.81
4.94 5.15 5.12 5.01 4.76 4.50 4.32 4.16 3.95 3.79 3.47 3.11 2.97 2.98 2.67 2.35 2.16 2.34 2.25 2.20 2.20 2.38 2.43 2.27 2.63 2.84 2.84 2.86 2.67 2.71 2.36 2.22 1.99 1.72 1.68 1.62 1.77 1.92 1.94 2.01 2.11 2.16 2.59
4.90 5.44 5.62 5.68 5.34 4.84 4.39 4.04 3.97 3.74 3.44 3.17 2.97 2.91 2.50 2.23 1.97 2.22 2.19 2.13 2.13 2.32 2.45 2.57 2.86 2.98 2.67 2.61 2.38 2.26 1.98 1.63 1.58 1.55 1.42 1.48 1.59 1.56 1.72 1.92 2.16 1.95 2.38
4.47 5.16 5.29 5.59 5.08 4.45 3.94 3.57 3.46 3.27 2.95 2.83 2.71 2.61 2.46 2.21 2.10 2.35 2.21 2.26 2.10 2.18 2.21 2.32 2.57 2.69 2.34 2.43 2.86 2.46 1.86 1.49 1.48 1.37 1.36 1.45 1.50 1.53 1.74 2.04 2.22 2.27 2.32
3.87 4.57 4.62 4.35 4.14 3.71 3.34 3.19 3.02 2.97 2.64 2.45 2.31 2.36 2.15 2.01 2.03 2.07 2.23 2.09 2.04 2.17 2.17 2.23 2.43 2.43 2.14 2.33 2.80 2.92 2.38 1.99 1.68 1.30 1.29 1.35 1.48 1.70 1.78 1.82 2.22 2.53 2.54
3.52 3.61 3.24 3.09 3.19 3.15 2.99 2.90 2.76 2.76 2.57 2.30 2.13 2.13 1.96 1.76 1.79 1.83 1.86 1.93 2.04 1.84 1.99 2.17 2.30 2.39 2.27 2.20 2.47 2.90 2.69 2.34 1.99 1.60 1.47 1.55 1.70 1.87 1.93 2.09 2.20 2.41 2.61
2.68 2.60 2.57 2.55 2.61 2.81 2.82 2.62 2.44 2.17 2.08 2.02 1.90 1.94 1.92 1.66 1.60 1.63 1.65 1.82 1.90 1.84 2.08 1.81 1.93 2.20 2.41 2.22 2.25 2.30 2.35 2.57 2.54 2.12 1.75 1.63 1.74 1.88 1.96 1.97 2.04 2.31 2.54
2.02 2.09 2.08 2.36 2.47 2.50 2.50 2.47 2.51 2.25 2.06 2.01 2.11 2.31 2.22 1.88 1.56 1.42 1.53 1.69 1.79 1.85 1.94 1.88 1.99 1.96 2.04 2.10 2.18 2.18 2.30 2.51 2.39 2.30 2.10 1.88 1.79 1.64 1.70 1.82 2.00 2.23 2.39
1.35 1.48 1.60 1.88 2.11 2.19 2.15 2.17 2.25 2.28 2.25 2.06 2.00 2.06 1.99 1.82 1.62 1.45 1.49 1.69 1.77 1.81 1.83 1.89 1.90 1.82 1.91 2.02 2.07 2.10 2.28 2.31 2.25 2.34 2.21 2.02 1.91 1.63 1.61 1.69 1.89 2.05 2.12